GFSNE_prec_cloud_003.txt.gz
Cloud_Cover
100 100 100 94 83 99 100 76 100 100 100 100 100 100 100 100 100 100 100 100 100 100 100 100 100 100 100 99 97 81 67 5 5 5 5 5 76 100
100 100 100 100 100 100 99 100 94 88 100 100 100 100 100 100 100 100 100 100 100 100 100 100 100 100 100 100 100 96 5 5 5 5 5 54 100 99
67 78 100 100 100 100 100 100 100 100 100 100 100 100 100 100 100 100 100 100 100 100 100 100 100 100 100 92 34 5 5 5 5 5 12 82 93 95
100 100 100 100 100 100 100 100 100 100 100 100 100 100 100 100 100 100 100 100 100 100 100 100 100 100 100 60 8 5 5 5 5 5 5 82 100 99
100 100 100 100 100 100 100 100 100 100 100 100 100 100 100 100 100 100 100 100 100 100 100 100 100 100 100 8 12 5 5 6 5 5 7 95 97 100
100 100 100 100 100 100 100 100 99 100 100 100 100 100 100 100 100 100 100 100 100 100 100 100 51 99 69 92 34 5 15 66 5 6 96 95 69 100
91 100 97 100 100 100 100 100 100 100 100 100 100 100 100 100 100 100 100 100 100 100 100 98 84 83 78 100 47 92 53 72 31 16 100 86 81 99
16 98 100 100 100 100 100 99 93 100 100 100 100 100 100 100 100 100 100 100 100 100 100 100 66 65 99 75 5 13 97 100 68 74 50 67 87 60
5 6 56 100 98 100 100 100 100 100 100 100 100 100 100 100 100 100 100 100 100 100 100 99 85 71 100 82 70 76 100 100 85 6 5 9 12 50
13 5 52 100 100 100 100 100 100 100 100 100 100 100 100 100 100 100 100 100 100 100 100 72 83 100 100 64 90 100 100 100 92 5 5 5 15 13
9 5 70 99 100 100 100 100 100 100 100 100 100 100 100 100 100 100 100 100 100 100 100 93 100 100 91 100 93 100 100 100 6 5 5 5 18 5
37 100 99 100 100 100 100 100 100 100 100 100 100 100 100 100 100 100 100 100 100 100 100 100 100 100 100 100 100 100 100 18 4 0 5 5 5 5
100 61 99 100 100 100 100 100 100 100 100 100 100 100 100 100 100 100 100 100 100 100 100 100 100 100 100 100 100 100 26 5 1 0 0 3 5 71
100 100 100 100 100 100 100 100 100 100 100 100 100 100 100 100 100 100 100 100 100 100 100 100 100 100 89 100 100 72 5 0 0 0 0 0 3 5
100 100 100 100 100 100 100 100 100 100 100 100 100 100 100 100 100 100 100 100 100 100 100 100 99 95 90 100 100 8 5 0 0 0 0 0 0 0
100 100 100 100 100 100 100 100 100 100 100 100 100 100 100 100 100 100 100 100 100 100 100 100 94 73 100 97 96 86 5 19 0 0 0 0 0 0
100 100 100 100 100 100 100 100 100 100 100 100 100 100 100 100 100 100 100 100 100 100 100 86 76 97 79 35 88 61 5 5 0 0 0 0 0 0
100 100 100 100 100 100 100 100 100 100 100 100 100 100 100 100 100 100 100 100 100 100 88 91 92 83 77 22 8 9 5 0 0 0 1 5 1 10
100 100 100 100 100 100 100 100 100 100 100 100 100 100 100 100 100 100 100 100 100 82 24 90 96 100 74 5 2 4 5 0 0 0 5 5 90 9
100 100 100 100 100 100 100 100 100 100 100 100 100 100 100 100 100 100 100 100 100 73 100 100 97 57 72 5 52 3 1 1 5 5 5 36 16 76
100 100 100 100 100 100 100 100 100 100 100 100 100 100 100 100 100 100 99 94 75 100 100 97 90 6 15 40 90 8 4 6 49 100 100 100 86 39
100 100 100 100 100 100 100 100 100 100 100 100 100 100 100 100 100 95 80 99 100 100 98 73 7 19 69 83 5 5 5 14 98 100 100 100 100 100
100 100 100 100 100 100 100 100 100 100 100 100 100 100 100 100 81 84 100 100 100 100 71 26 5 7 5 5 5 5 16 79 100 86 100 100 100 100

GFSNE_prec_cloud_006.txt.gz
Cloud_Cover
97 89 98 100 100 100 100 100 100 100 100 98 100 100 100 63 100 100 64 98 100 100 100 100 100 100 100 100 100 100 89 100 100 29 5 5 5 9
100 100 97 100 100 100 100 100 100 100 100 100 100 100 93 100 100 100 64 20 84 100 100 100 100 100 100 100 100 100 100 88 32 5 5 5 73 26
43 87 100 100 100 100 100 100 100 100 100 100 100 100 100 71 100 100 100 100 94 100 100 100 100 100 100 100 100 100 100 28 5 25 5 33 79 6
73 78 77 89 100 100 100 100 100 100 100 100 100 100 100 100 100 100 100 100 100 100 100 100 100 100 91 79 100 100 100 87 41 18 99 79 69 14
96 100 100 97 51 33 95 85 100 100 100 100 100 100 100 100 100 100 100 100 100 100 100 100 100 100 94 100 100 94 29 98 91 100 97 96 50 100
0 3 18 33 5 6 72 100 100 100 100 99 100 100 100 100 100 100 100 100 100 100 100 100 100 100 99 100 91 98 100 100 100 100 54 48 78 100
0 0 0 1 2 7 99 25 100 100 100 100 100 100 100 100 100 100 100 100 100 100 100 100 100 99 100 100 100 100 100 100 100 41 82 52 79 100
0 0 0 5 5 5 40 67 97 98 100 100 100 100 100 100 100 100 100 100 100 100 100 100 100 100 100 100 100 100 100 100 45 100 90 45 100 71
10 10 0 34 33 16 53 6 76 100 100 99 100 100 100 100 100 100 100 100 100 100 100 100 100 99 100 100 100 100 100 100 100 100 97 42 70 80
37 64 43 59 96 100 100 93 70 58 95 100 94 100 100 100 100 100 100 100 100 100 100 100 100 100 100 100 100 100 100 100 100 90 96 20 5 50
62 99 88 37 2 9 100 100 40 100 100 92 79 100 100 100 100 100 100 100 100 100 100 100 100 100 100 100 100 100 100 100 85 21 93 46 49 29
4 0 46 50 58 60 100 100 100 99 100 100 100 100 100 100 100 100 100 100 100 100 100 100 100 100 100 100 100 100 100 97 69 95 91 5 5 5
0 2 5 99 100 94 98 100 100 100 100 100 100 100 100 100 100 100 100 100 100 100 100 100 100 100 100 100 100 100 100 63 89 14 5 2 2 5
5 5 22 100 100 100 100 100 100 100 100 100 100 100 100 100 100 100 100 100 100 100 100 100 100 100 100 100 100 88 30 46 5 10 2 0 0 2
5 6 98 100 100 100 100 100 99 100 100 100 100 100 100 100 100 100 100 100 100 100 100 100 100 100 100 100 99 44 51 5 5 4 0 0 0 0
14 58 100 100 100 100 100 100 100 100 100 100 100 100 100 100 100 100 100 100 100 100 100 100 100 100 100 89 51 91 37 41 4 1 0 0 0 0
46 85 100 100 100 100 100 100 100 100 100 100 100 100 100 100 100 100 100 100 100 100 100 100 100 100 82 19 95 62 39 37 5 5 0 0 0 0
47 100 100 100 100 100 100 100 100 100 100 100 100 100 100 100 100 100 100 100 100 100 100 100 100 90 32 5 10 20 60 6 5 1 0 1 0 1
100 100 100 100 100 100 100 100 100 100 100 100 100 100 100 100 100 100 100 100 100 100 100 100 99 87 100 86 5 4 14 5 5 5 5 5 5 67
100 100 100 100 100 100 100 100 100 100 100 100 100 100 100 100 100 100 100 100 100 100 99 78 80 93 73 56 88 9 3 4 12 70 64 100 100 100
100 100 100 100 100 100 100 100 100 100 100 100 100 100 100 100 100 100 100 100 100 92 67 64 100 58 81 56 60 5 4 71 82 95 97 100 100 100
100 100 100 100 100 100 100 100 100 100 100 100 100 100 100 100 100 100 100 100 86 59 95 100 87 84 100 94 41 32 68 56 92 100 100 100 100 100
100 100 100 100 100 100 100 100 100 100 100 100 100 100 100 100 100 100 100 58 38 95 100 88 100 71 73 56 7 45 75 55 99 98 87 95 100 100

GFSNE_prec_cloud_009.txt.gz
Cloud_Cover
0 60 97 95 69 83 92 100 100 100 100 100 100 100 100 100 100 100 99 97 100 100 100 54 85 100 100 100 100 100 100 14 100 98 48 33 20 5
5 13 31 66 48 76 30 63 98 100 100 96 100 100 100 97 100 100 100 100 100 100 100 89 100 100 100 100 100 100 100 100 99 67 9 49 5 5
4 15 25 59 94 63 15 9 96 100 100 27 62 100 100 98 99 100 100 100 100 100 100 100 100 100 100 100 100 100 100 88 80 5 13 100 98 34
24 0 0 2 5 62 92 50 71 100 100 100 100 100 100 100 100 100 100 100 100 100 100 100 100 100 100 100 100 100 100 100 53 5 75 100 100 22
0 0 0 0 0 0 0 2 5 12 69 100 100 100 100 100 100 100 100 100 100 100 100 100 100 100 100 100 100 100 100 100 84 82 100 100 78 5
5 5 3 1 3 0 3 21 40 63 93 78 98 100 100 100 100 100 100 100 100 100 100 100 100 100 100 100 100 100 100 100 100 100 100 100 81 100
19 5 3 5 3 4 46 41 52 72 100 100 99 49 66 100 100 100 100 100 100 100 100 100 100 100 100 100 100 100 100 100 100 100 100 82 100 96
4 4 5 29 86 71 100 54 99 100 100 100 96 100 61 69 100 100 100 100 100 100 100 100 100 100 100 100 100 100 100 100 100 100 70 100 99 100
10 5 5 32 40 53 33 22 13 27 95 100 100 100 100 100 100 100 100 100 100 100 100 100 100 100 100 100 100 100 97 100 100 100 100 100 100 100
15 24 9 3 2 1 56 100 100 94 76 89 100 37 64 100 100 100 100 100 100 100 100 100 100 100 100 100 100 100 100 100 100 100 100 100 100 100
4 5 4 0 0 2 62 100 100 100 100 99 74 84 83 98 100 100 100 100 100 100 100 100 100 100 100 100 100 100 100 100 100 100 100 100 100 48
6 5 5 4 1 5 100 100 100 100 100 100 100 100 78 65 100 100 100 100 100 100 100 100 100 100 100 100 100 100 100 100 100 100 100 100 99 76
34 17 5 5 5 90 100 100 100 100 100 100 100 100 100 100 100 100 100 100 100 100 100 100 100 100 100 100 100 100 100 100 100 100 100 93 51 28
67 30 5 6 100 100 100 100 100 100 100 100 100 100 100 100 100 100 100 100 100 100 100 100 100 100 100 100 100 100 100 100 100 100 100 94 8 2
43 13 27 100 100 100 100 100 100 100 100 100 100 100 100 100 100 100 100 100 100 100 100 100 100 100 100 100 100 100 100 100 95 98 98 5 0 0
5 14 84 100 100 100 100 100 100 100 100 100 100 100 100 100 100 100 100 100 100 100 100 100 100 100 100 100 100 100 100 100 100 47 5 2 0 0
100 81 89 100 100 100 100 100 100 100 100 100 100 100 100 100 100 100 100 100 100 100 100 100 100 100 100 100 100 100 100 86 63 5 5 5 1 0
96 100 100 100 100 100 100 100 100 100 100 100 100 100 100 100 100 100 100 100 100 100 100 100 100 100 94 94 99 100 89 99 46 5 5 5 1 0
100 100 100 100 100 100 100 100 100 100 100 100 100 100 100 100 100 100 100 100 100 100 100 100 100 94 96 66 7 78 84 6 5 5 5 5 45 9
100 100 100 100 100 100 100 100 100 100 100 100 100 100 100 100 100 100 100 100 80 100 99 94 87 90 93 43 22 5 3 5 5 24 46 100 100 100
100 100 97 100 100 100 100 100 100 100 100 100 100 100 100 100 100 100 100 88 100 100 93 98 100 95 85 55 44 5 5 94 44 34 100 100 100 98
100 100 87 100 100 100 100 100 100 100 100 100 100 100 100 100 100 100 100 100 100 100 100 99 77 89 99 76 19 6 71 34 79 77 98 100 90 89
77 87 100 100 100 100 100 100 100 100 100 100 100 100 100 100 100 100 100 100 100 100 100 5 53 93 75 72 54 42 13 57 56 87 99 95 100 100

GFSNE_prec_cloud_012.txt.gz
Cloud_Cover
93 4 0 4 12 32 32 45 100 100 100 100 100 100 100 100 100 100 100 100 100 100 99 79 79 100 82 100 100 100 100 100 100 100 100 100 95 86
3 0 1 1 1 4 19 57 96 96 99 70 89 100 100 100 100 100 100 100 100 100 100 100 77 97 100 100 100 100 100 100 100 100 100 100 100 91
0 0 0 4 5 5 16 5 5 35 96 10 52 5 21 94 100 100 100 100 100 100 100 97 100 100 91 100 100 100 100 100 100 100 98 77 68 56
0 0 0 5 1 5 3 13 28 11 83 100 92 86 25 6 0 57 97 100 100 100 100 100 100 100 100 100 100 100 100 100 100 100 100 100 100 72
5 9 2 1 0 1 3 20 5 21 50 100 67 29 27 52 20 19 41 75 96 77 100 100 100 100 100 100 100 100 100 100 100 100 100 100 94 50
5 5 5 4 3 5 35 51 80 98 100 100 100 100 79 98 100 96 100 92 99 100 100 100 100 100 100 100 100 100 100 100 100 100 100 100 81 100
16 79 82 100 100 100 94 57 98 100 100 100 100 96 100 100 100 100 98 54 50 100 100 100 100 100 100 100 100 100 100 100 100 100 100 100 100 100
15 56 93 97 100 100 100 100 100 100 100 100 100 100 100 99 100 89 100 100 100 93 100 100 100 100 100 100 100 100 100 100 100 100 100 100 100 100
4 5 5 87 90 98 99 100 99 95 100 100 100 100 100 100 100 100 98 99 100 100 100 100 100 100 100 100 100 100 100 100 100 100 100 100 100 100
3 0 3 5 5 5 6 5 5 27 100 100 100 100 100 100 100 100 100 100 100 100 100 100 100 100 100 100 100 100 100 100 100 100 100 100 100 100
5 5 5 5 5 6 20 74 93 100 100 100 100 100 100 100 100 100 100 100 100 100 100 100 100 100 100 100 100 100 100 100 100 100 100 100 100 100
17 12 5 5 5 5 79 100 100 100 100 100 100 100 100 100 100 100 100 100 100 100 100 100 100 100 100 100 100 100 100 100 100 100 100 100 100 100
40 7 5 9 55 59 100 100 100 100 100 100 100 100 100 100 100 100 100 100 100 100 100 100 100 100 100 100 100 100 100 100 100 100 100 100 100 100
100 8 33 87 66 100 100 100 100 100 100 100 100 100 100 100 100 100 100 100 100 100 100 100 100 100 100 100 100 100 100 100 100 100 100 100 100 100
40 98 100 96 100 100 100 100 100 100 100 100 100 100 100 100 100 100 100 100 100 100 100 100 100 100 100 100 100 100 100 100 100 100 100 100 100 100
61 35 84 96 98 90 94 100 100 100 100 100 100 100 100 100 100 100 100 100 100 100 100 100 100 100 100 100 100 100 100 100 100 100 100 100 100 52
100 61 91 53 64 78 100 100 98 100 100 100 100 100 100 100 100 100 100 100 100 100 100 100 100 100 100 100 100 100 100 100 98 100 100 99 45 2
88 100 87 98 100 100 100 99 100 100 100 100 100 100 100 100 100 100 100 100 100 100 100 100 100 100 100 100 100 100 100 96 100 100 76 12 5 2
60 98 100 100 100 100 100 100 100 100 100 100 100 100 100 100 100 100 100 100 100 100 100 100 100 100 100 100 100 100 100 87 10 5 7 5 5 7
100 96 100 100 100 100 100 100 100 100 100 100 100 100 100 100 100 100 100 100 100 100 100 100 100 90 100 83 36 50 56 16 6 5 5 10 21 49
100 100 100 100 100 100 100 100 100 100 100 100 100 100 100 100 100 100 100 100 100 100 100 100 100 95 87 78 33 16 38 5 5 9 77 85 76 100
100 100 100 100 100 100 100 100 100 100 100 100 100 100 100 100 100 100 100 100 100 100 100 100 96 99 99 63 16 16 8 37 6 5 91 96 89 91
99 100 100 100 100 100 100 100 100 100 100 100 100 100 100 100 100 100 100 100 96 47 87 33 68 79 77 83 76 72 60 29 73 94 94 100 100 100

GFSNE_prec_cloud_015.txt.gz
Cloud_Cover
4 2 0 2 4 2 32 83 89 100 100 100 100 99 87 17 39 22 100 100 100 100 100 100 100 100 100 100 100 100 100 100 100 100 100 100 100 100
0 0 0 0 0 2 5 10 52 94 100 53 51 24 8 3 1 3 47 96 100 100 100 100 100 100 100 100 100 100 100 100 100 100 100 100 100 100
0 0 0 1 2 3 5 10 62 100 100 18 26 8 94 96 5 6 86 57 88 100 100 100 100 100 100 100 100 100 100 100 100 100 100 100 100 100
0 0 4 6 5 5 5 5 6 8 96 99 91 98 100 99 100 100 57 100 100 100 100 100 100 100 98 100 100 100 100 100 100 100 100 100 100 100
5 4 5 5 5 88 100 98 80 93 99 100 36 95 21 35 94 34 89 100 99 99 100 100 100 100 100 100 100 100 100 100 100 100 100 100 100 100
3 5 33 42 70 67 54 92 100 94 99 87 38 12 19 38 97 100 97 100 90 91 98 100 96 94 83 69 100 100 100 100 100 100 100 100 100 100
0 0 0 0 0 1 4 29 5 13 10 92 100 55 66 100 100 100 100 100 100 100 100 100 100 100 100 100 100 100 100 100 100 100 100 100 100 100
0 0 0 0 0 5 5 6 52 100 98 100 100 100 100 100 100 100 100 100 93 100 100 100 100 100 100 100 100 100 100 100 100 100 100 100 100 100
1 0 0 4 5 10 5 5 26 95 73 68 100 83 100 100 100 100 100 100 100 100 100 100 100 100 100 100 100 100 100 100 100 100 100 100 100 100
5 4 5 5 35 35 5 5 5 5 55 99 100 100 100 100 100 100 100 100 100 100 100 100 100 97 100 100 100 100 100 100 100 100 100 100 100 100
5 16 90 79 80 95 94 78 26 82 80 81 100 100 100 100 100 100 100 100 100 100 100 100 100 100 100 100 100 100 100 100 100 100 100 100 100 100
76 85 5 86 99 99 100 100 100 100 94 100 72 79 95 100 100 100 100 100 100 100 100 100 100 100 100 100 100 100 100 100 100 100 100 100 100 100
94 5 7 62 100 100 100 100 100 100 100 100 83 100 100 100 100 100 100 100 100 100 100 100 100 100 100 100 100 100 100 100 100 100 100 100 100 100
86 84 100 100 100 99 98 97 100 100 100 99 100 95 100 100 100 100 100 100 100 100 100 100 100 100 100 100 100 100 100 100 100 100 100 100 100 100
79 100 100 92 76 34 78 100 100 98 100 100 100 100 96 100 100 98 99 100 100 100 100 100 100 100 100 100 100 100 100 100 100 100 100 100 100 100
100 86 5 15 86 89 93 94 97 100 100 100 100 100 100 98 100 100 100 100 100 100 100 100 100 100 100 100 100 100 100 100 100 100 100 100 100 100
100 22 6 99 100 100 99 100 100 100 100 100 100 100 97 100 100 100 100 100 100 100 100 100 100 100 100 100 100 100 100 100 100 100 100 100 100 100
100 37 100 100 100 100 100 100 100 100 100 100 100 100 100 100 100 100 100 100 100 100 100 100 100 100 100 100 100 100 100 100 100 100 100 100 100 100
100 100 100 100 100 100 100 100 100 100 100 100 100 100 100 100 100 100 100 100 100 100 100 100 100 100 100 100 100 100 100 100 100 100 100 95 28 5
100 100 100 100 100 100 100 100 100 100 100 100 100 100 100 100 100 100 100 100 100 100 100 100 100 100 100 100 100 99 11 22 49 31 5 5 28 6
95 100 100 100 100 100 100 100 100 100 100 100 100 100 100 100 100 100 100 100 100 100 100 100 100 100 97 92 12 11 28 5 7 5 5 24 50 53
100 100 99 100 100 100 100 100 100 100 100 100 100 100 100 100 100 100 100 100 100 100 100 100 100 98 89 80 59 76 91 81 69 93 84 94 100 79
100 97 100 100 100 100 100 100 100 100 100 100 100 100 100 100 100 100 100 100 100 100 100 100 85 100 93 84 75 73 81 64 76 88 100 100 100 100

GFSNE_prec_cloud_018.txt.gz
Cloud_Cover
0 0 0 0 0 6 39 94 100 67 5 0 0 0 0 0 4 9 4 5 82 99 100 100 100 100 100 100 100 100 100 100 100 100 100 100 100 100
0 0 0 0 14 86 80 30 13 50 51 0 0 1 15 17 100 100 93 67 3 5 47 100 100 100 100 100 100 100 100 100 100 100 99 99 100 100
0 3 15 3 2 2 2 1 3 5 6 3 5 98 18 7 90 100 100 100 100 86 24 100 100 100 86 100 100 100 100 100 100 100 100 73 100 100
3 5 0 0 0 0 0 0 0 5 10 97 35 5 1 2 14 92 96 100 100 100 100 100 100 100 98 99 100 100 100 100 100 100 100 100 100 100
5 0 0 0 0 0 1 4 4 6 100 100 7 5 5 5 5 4 6 83 100 100 100 100 100 100 100 100 100 100 100 100 100 100 100 100 100 100
0 0 4 3 0 5 5 5 6 93 40 89 100 100 100 40 40 5 5 18 54 84 43 100 100 100 100 100 100 100 100 100 100 100 100 100 100 100
0 0 4 5 5 5 79 31 97 98 100 100 81 94 100 100 100 99 92 100 100 100 100 100 100 100 100 100 100 100 100 100 100 100 100 100 100 100
4 2 0 4 5 6 80 98 100 100 100 100 98 100 100 100 100 100 100 100 100 100 100 100 100 100 100 100 100 100 100 100 100 100 100 100 100 100
5 5 5 5 24 14 28 88 62 74 97 99 100 100 100 100 91 100 100 100 100 99 100 100 100 100 100 100 100 100 72 82 100 100 100 100 100 100
5 5 83 90 15 100 96 72 54 30 5 78 100 100 100 95 100 100 68 100 100 100 100 100 100 100 100 100 100 100 92 78 100 100 100 100 100 100
5 6 100 38 75 100 100 95 66 17 5 10 79 100 98 96 94 100 100 100 100 100 100 100 100 100 100 100 100 100 73 93 100 100 100 100 100 100
13 90 5 56 100 100 100 100 98 5 35 74 99 32 97 100 100 100 100 100 100 100 61 100 100 100 100 100 100 94 100 100 100 100 100 100 100 100
99 5 5 77 100 96 99 96 98 100 100 100 95 81 100 100 100 100 100 100 100 100 100 100 100 100 100 100 100 100 100 100 100 100 100 100 100 100
93 5 65 100 86 6 59 99 100 100 100 98 100 100 100 100 100 100 100 100 100 100 93 100 100 100 100 100 100 100 100 100 100 100 100 100 100 100
44 90 70 31 5 5 72 100 92 87 100 100 100 100 100 100 100 99 100 100 100 100 100 100 100 100 100 100 100 100 100 100 100 100 100 100 100 100
95 99 18 5 5 81 76 67 96 100 100 100 100 100 100 100 92 98 100 100 100 100 100 100 100 100 100 100 100 100 100 100 100 100 100 100 100 100
100 6 6 84 100 99 100 100 100 100 100 100 100 100 98 100 88 100 100 100 100 100 100 100 100 100 100 100 100 100 100 100 100 100 100 100 100 100
68 20 100 100 100 100 100 100 100 100 100 100 100 100 100 100 100 100 100 100 100 100 100 100 100 100 100 100 100 100 100 100 100 100 100 100 100 100
57 99 100 100 100 100 100 100 100 100 100 100 100 100 100 100 100 100 100 100 100 100 100 100 100 100 100 100 100 100 100 100 100 100 100 100 100 100
98 100 100 100 100 100 100 100 100 100 100 100 100 100 100 100 100 100 100 100 100 100 100 100 100 100 100 100 100 100 100 100 100 100 100 100 100 100
100 100 100 100 100 100 100 100 100 100 100 100 100 100 100 100 100 100 100 100 100 100 100 100 100 100 100 100 100 100 100 100 100 100 100 100 100 100
100 100 100 100 100 100 100 100 100 100 100 100 100 100 100 100 100 100 100 100 100 100 100 100 100 100 100 100 100 100 100 100 100 100 100 100 100 100
100 100 100 100 100 100 100 100 100 100 100 100 100 100 100 100 100 100 100 100 100 100 100 100 100 100 100 100 100 100 100 100 100 100 100 97 93 100

GFSNE_prec_cloud_021.txt.gz
Cloud_Cover
0 0 0 4 8 5 32 27 92 13 5 0 0 0 0 0 3 83 4 18 100 100 100 100 100 100 72 100 98 100 100 100 100 100 100 100 100 100
0 0 2 4 0 0 0 0 0 3 5 0 0 0 0 13 12 5 2 3 8 94 100 100 100 100 73 100 98 100 100 100 100 100 100 100 100 100
0 0 5 0 0 0 0 0 2 5 4 0 3 0 86 51 4 0 1 1 2 0 5 91 100 100 100 100 100 71 100 100 99 100 100 100 100 100
0 5 5 0 0 0 0 5 5 53 99 51 5 98 82 5 5 5 5 5 5 3 5 1 92 100 100 100 100 78 12 98 69 100 100 100 100 100
0 0 0 0 0 2 5 34 64 94 66 88 7 5 5 5 11 12 52 5 5 5 5 5 4 92 100 100 100 100 100 100 96 53 98 100 100 96
0 5 2 5 5 23 46 63 84 71 59 57 82 5 5 5 16 5 5 5 50 35 16 39 32 5 90 100 100 65 100 28 60 97 85 98 100 88
5 5 5 5 5 83 100 100 100 92 99 100 82 93 84 87 5 5 21 5 5 5 6 17 53 66 14 100 100 100 68 100 100 76 74 95 100 100
5 5 5 5 22 94 92 98 100 100 100 100 63 99 44 5 7 76 95 100 95 6 66 86 10 5 5 21 100 100 83 100 100 100 100 62 73 100
61 43 5 57 76 67 9 88 95 86 67 100 100 100 92 5 73 90 100 99 100 96 100 100 24 95 100 7 100 100 89 82 99 38 100 100 100 100
79 61 74 94 18 100 86 98 34 4 5 97 100 91 82 66 98 99 100 100 71 32 82 100 71 71 86 100 100 100 100 100 100 100 100 56 88 100
16 86 100 16 40 100 100 87 5 5 6 80 100 100 100 100 100 100 100 100 82 24 76 100 100 89 98 100 100 100 100 90 38 94 100 100 100 100
83 84 11 60 100 100 100 90 84 6 92 64 5 5 10 87 100 100 100 100 100 98 100 100 90 100 100 100 100 100 100 93 74 97 100 100 100 100
99 36 5 62 100 100 100 97 94 100 81 54 56 86 97 100 100 100 100 100 100 100 99 100 100 100 100 100 93 92 97 100 100 100 100 100 100 100
70 45 79 100 84 95 71 100 100 99 50 100 100 100 100 100 100 100 100 100 100 100 100 100 99 97 100 100 100 100 100 100 100 100 100 100 100 100
98 100 94 21 54 28 51 100 90 84 100 100 100 100 100 100 100 100 100 100 100 100 100 100 100 100 100 100 100 100 100 100 100 100 100 100 100 100
100 32 5 5 93 41 43 55 100 100 100 100 100 100 100 100 100 100 100 100 100 100 100 100 100 100 100 100 100 100 100 100 100 100 100 100 100 100
100 5 5 48 67 28 89 100 100 100 100 100 100 100 100 100 100 100 100 100 100 100 100 100 100 100 100 100 100 100 100 100 100 100 100 100 100 100
81 38 78 94 99 100 100 100 100 100 100 100 100 100 100 100 100 100 100 100 100 100 100 100 100 100 100 100 100 100 100 100 100 100 100 100 100 100
100 100 100 100 100 100 100 100 100 100 100 100 100 100 100 100 100 100 100 100 100 100 100 100 100 100 100 100 100 100 100 100 100 100 100 100 100 100
100 100 100 100 100 100 100 100 100 100 100 100 100 100 100 100 100 100 100 100 100 100 100 100 100 100 100 100 100 100 100 100 100 100 100 100 100 100
100 100 100 100 100 100 100 100 100 100 100 100 100 100 100 100 100 100 100 100 100 100 100 100 100 100 100 100 100 100 100 100 100 100 100 100 100 100
100 100 100 100 100 100 100 100 100 100 100 100 100 100 100 100 100 100 100 100 100 100 100 100 100 100 100 100 100 100 100 100 100 100 100 100 100 100
100 100 100 100 100 100 100 100 100 100 100 100 100 100 100 100 100 100 100 100 100 100 100 100 95 87 99 100 100 100 100 100 100 100 100 100 100 100

GFSNE_prec_cloud_024.txt.gz
Cloud_Cover
0 0 0 0 2 3 0 4 5 4 0 0 0 0 0 0 0 4 20 84 5 5 0 5 0 1 3 51 99 48 99 100 100 100 100 100 100 100
0 0 0 0 4 0 0 0 0 3 8 0 0 0 3 5 5 5 38 5 1 5 5 5 28 5 5 5 5 89 54 79 100 100 100 100 100 100
0 0 0 0 0 0 0 0 5 28 100 1 4 1 5 56 5 5 5 5 5 5 5 5 5 5 5 6 7 46 80 30 69 100 100 100 100 100
0 0 0 0 0 0 5 5 62 91 100 92 33 47 6 23 99 99 8 5 5 5 5 5 5 5 5 5 4 17 5 86 7 59 100 100 100 100
0 0 4 5 5 5 13 81 97 98 98 23 5 5 5 5 9 32 66 68 35 5 5 5 5 5 5 5 5 5 6 1 100 8 10 88 100 100
2 5 5 5 12 54 77 99 100 95 12 36 5 5 5 5 78 21 8 5 11 18 7 20 90 54 6 5 5 5 38 99 26 93 98 100 100 100
5 5 14 38 73 99 100 99 100 55 46 5 41 98 7 5 5 5 82 5 4 12 5 16 53 32 22 42 14 4 41 20 90 100 95 74 92 100
5 6 63 94 100 100 100 100 100 100 100 100 93 99 5 41 12 59 40 43 80 3 95 64 86 54 8 5 5 46 59 8 5 98 100 100 100 95
82 73 74 90 100 100 99 97 100 100 100 100 100 21 47 5 86 50 95 100 100 14 55 58 6 19 5 5 10 32 10 47 92 24 5 100 100 92
92 100 98 100 100 100 82 98 100 100 95 91 100 56 89 75 100 100 100 99 79 85 100 100 45 22 7 16 8 97 100 100 100 100 100 96 100 54
99 100 100 100 100 100 100 96 32 8 7 63 100 100 100 100 100 100 99 100 85 100 100 100 73 80 97 92 88 99 100 100 100 100 100 100 72 100
97 100 100 100 100 100 100 99 91 6 37 67 21 34 94 96 100 100 100 100 100 99 100 100 98 99 85 100 100 100 100 100 100 100 97 83 100 100
81 81 96 100 100 100 100 100 100 100 83 95 98 82 97 100 100 100 100 100 100 100 100 100 100 100 99 95 98 57 100 96 50 97 100 100 100 100
61 80 99 100 100 100 100 100 100 100 96 100 100 100 100 100 95 100 100 100 100 100 100 100 100 100 92 88 94 95 93 92 95 100 100 100 100 100
99 99 100 100 100 58 100 100 100 99 99 100 100 100 100 90 95 95 94 100 100 100 100 100 100 100 100 99 99 100 100 100 100 100 100 100 100 100
92 98 34 100 94 96 70 15 87 100 100 100 100 100 100 100 100 100 100 100 100 100 100 100 100 100 100 100 100 100 100 100 100 100 100 100 100 100
100 19 100 89 59 51 24 84 91 100 100 100 100 100 100 100 100 100 100 100 100 100 100 100 100 100 100 100 100 100 100 100 100 100 100 100 100 100
99 100 100 95 90 98 100 100 100 100 100 100 100 100 100 100 100 100 100 100 100 100 100 100 100 100 100 100 100 100 100 100 100 100 100 100 100 100
100 100 100 100 100 100 100 100 100 100 100 100 100 100 100 100 100 100 100 100 100 100 100 100 100 100 100 100 100 100 100 100 100 100 100 100 100 100
100 100 100 100 100 100 100 100 100 100 100 100 100 100 100 100 100 100 100 100 100 100 100 100 100 100 100 100 100 100 100 100 100 100 100 100 100 100
100 100 100 100 100 100 100 100 100 100 100 100 100 100 100 100 100 100 100 100 100 100 100 100 100 100 100 100 100 100 100 100 100 100 100 100 100 100
100 100 100 100 100 100 100 100 100 100 100 100 100 100 100 100 100 100 100 100 100 100 100 100 100 100 100 100 100 100 100 100 100 100 100 100 100 100
100 100 100 100 100 100 100 100 100 100 100 100 100 100 100 100 100 100 100 100 100 100 100 100 100 100 100 100 100 100 100 100 100 100 100 100 100 100

GFSNE_prec_cloud_027.txt.gz
Cloud_Cover
5 5 2 0 0 0 0 4 5 2 0 0 0 0 0 0 0 4 2 4 5 5 5 5 5 5 5 5 18 5 5 5 21 94 100 100 100 100
1 0 0 0 0 0 0 0 1 4 5 0 0 0 0 5 4 36 7 52 5 5 5 5 8 5 5 14 5 5 5 15 100 13 8 100 100 100
0 0 0 0 0 0 0 2 5 31 72 4 2 5 5 5 5 5 4 4 16 20 5 5 13 68 5 5 5 5 5 6 50 100 100 100 100 100
0 0 0 0 4 5 5 5 6 10 89 64 5 5 5 0 5 5 5 5 5 2 5 12 99 58 5 5 5 5 23 48 5 73 99 100 100 100
0 0 0 5 5 5 31 63 6 80 45 72 5 5 5 5 5 6 18 5 0 4 90 77 14 7 59 54 12 6 9 46 100 100 65 12 86 98
0 5 5 5 15 5 5 31 58 39 20 58 95 85 94 7 96 78 4 3 5 6 21 3 8 78 61 100 99 100 59 27 100 71 100 69 84 39
5 5 5 16 81 100 100 85 30 93 99 91 100 100 96 28 26 18 5 5 5 5 5 5 94 71 10 22 50 61 58 96 100 81 100 100 100 100
5 5 5 25 78 100 100 100 100 100 97 100 100 100 71 66 6 63 85 74 87 50 100 16 8 5 5 6 6 53 80 78 5 5 41 36 14 100
5 5 5 5 95 22 43 100 96 95 99 100 100 80 67 5 55 86 100 100 100 84 100 66 100 79 100 100 100 100 74 100 100 100 83 15 5 79
61 72 36 6 54 100 100 100 91 49 24 99 100 80 76 88 100 100 100 100 98 100 100 100 100 100 100 100 100 100 100 96 100 91 100 100 84 8
99 100 100 92 98 100 100 100 43 5 5 100 100 100 100 100 100 100 100 100 100 100 100 67 94 100 100 100 100 100 96 100 100 100 100 100 100 60
59 55 63 100 100 100 100 100 89 8 95 42 7 14 75 29 99 100 100 100 100 100 100 100 87 78 100 100 100 100 100 100 100 100 100 100 100 100
94 43 92 100 100 100 100 100 91 100 64 54 96 100 100 100 100 100 100 100 100 100 100 100 100 100 100 99 100 100 89 100 100 100 100 100 100 100
93 92 99 100 100 100 100 100 100 100 62 99 100 100 100 100 98 100 100 100 100 100 100 100 100 100 100 100 100 100 89 100 100 100 100 77 65 40
100 100 99 98 100 72 96 100 100 88 100 100 100 97 100 100 100 100 100 100 100 100 100 100 100 98 100 100 100 100 100 100 100 100 100 100 100 100
100 97 14 92 90 80 58 98 69 100 100 100 100 100 100 100 100 100 100 100 100 100 100 100 100 100 92 100 100 100 100 100 100 100 100 100 100 100
100 6 26 93 18 49 79 100 100 100 100 100 100 100 100 100 100 100 100 100 100 100 100 100 100 96 99 100 99 100 100 100 100 100 100 100 100 100
89 87 100 100 98 100 100 100 100 100 100 100 100 100 100 100 100 100 100 100 100 100 100 100 100 100 99 100 100 100 100 100 100 100 100 100 100 100
100 100 100 98 100 100 100 100 100 100 100 100 100 100 100 100 100 100 100 100 100 100 100 100 100 100 100 100 100 100 100 100 100 100 100 100 100 100
100 100 100 100 100 100 100 100 100 100 100 100 100 100 100 100 100 100 100 100 100 100 100 100 100 100 100 100 100 100 100 100 100 100 100 100 100 100
100 100 100 100 100 100 100 100 100 100 100 100 100 100 100 100 100 100 100 100 100 100 100 100 100 100 100 100 100 100 100 100 100 100 100 100 100 100
100 100 100 100 100 100 100 100 100 100 100 100 100 100 100 100 100 100 100 100 100 100 100 100 100 100 100 100 100 100 100 100 100 100 100 100 100 100
100 100 100 100 100 100 100 100 100 100 100 100 100 100 100 100 100 100 100 100 100 100 100 100 100 100 100 100 100 100 100 100 100 100 100 100 100 100

GFSNE_prec_cloud_030.txt.gz
Cloud_Cover
62 15 16 5 5 3 0 0 0 5 2 0 0 0 5 5 5 58 13 5 5 5 25 26 25 98 87 74 100 100 100 100 99 80 24 5 100 80
6 22 45 4 0 0 0 0 1 5 5 0 5 2 0 5 21 12 1 2 5 8 99 100 100 80 66 68 99 100 100 100 100 97 94 66 97 100
20 2 0 0 0 0 0 4 5 28 100 1 0 1 5 5 0 3 5 5 5 12 100 100 21 5 68 99 100 100 100 100 100 100 100 100 100 100
0 0 0 0 0 1 5 5 5 5 41 65 5 5 5 5 5 5 5 100 7 28 86 6 9 90 100 100 6 8 25 100 100 100 100 80 78 24
0 0 0 0 5 5 5 5 5 16 68 100 22 8 20 5 8 23 95 97 10 5 5 5 71 35 13 89 100 100 100 99 100 100 100 100 100 100
0 0 4 5 12 35 58 80 100 100 95 56 100 97 37 31 100 63 20 25 5 5 5 5 91 39 100 100 100 89 26 6 87 95 99 100 100 100
0 5 5 14 60 99 100 99 100 77 95 100 85 14 99 46 62 43 94 38 5 85 78 16 88 26 5 6 5 5 41 75 74 30 100 99 100 100
5 5 5 5 34 98 100 100 100 100 99 100 100 90 5 33 99 80 92 98 96 98 99 67 99 18 25 5 65 100 100 100 100 100 96 100 100 100
5 5 5 5 34 14 9 99 98 99 100 100 93 62 99 72 100 91 100 100 100 100 94 100 91 73 42 78 100 99 100 100 100 100 100 84 100 97
5 10 16 5 42 100 79 100 100 75 28 91 100 96 99 100 100 100 100 99 96 88 82 97 99 98 43 100 100 100 100 98 99 56 60 100 100 100
18 100 97 72 94 100 100 100 84 45 5 5 98 100 100 100 100 100 100 100 100 100 100 89 64 98 98 68 100 100 100 100 100 100 100 100 100 96
79 71 68 100 100 100 100 100 96 5 80 96 29 91 60 100 100 100 100 100 100 99 100 100 90 97 100 100 100 100 77 96 68 26 50 94 100 100
94 80 52 69 100 100 100 99 100 100 89 100 73 98 100 98 99 100 100 100 100 100 100 100 100 100 100 100 100 100 97 99 83 24 5 87 100 95
98 18 67 100 100 100 100 100 100 100 99 95 100 100 100 100 100 100 100 100 100 100 100 100 100 100 100 100 100 98 100 100 98 99 100 100 100 93
86 81 100 100 100 50 68 100 100 92 98 100 100 100 100 100 100 100 100 100 100 100 100 100 100 100 100 100 100 81 100 100 100 100 100 100 100 100
88 99 67 33 33 66 98 100 100 100 100 100 100 100 100 100 100 100 100 100 100 100 100 100 100 100 92 100 100 99 100 100 100 100 100 100 100 100
100 19 5 16 79 100 100 100 100 100 100 100 100 100 100 100 100 100 100 100 100 100 100 100 100 94 100 100 100 100 100 100 100 100 100 100 100 100
96 16 89 100 100 100 100 100 100 100 100 100 100 100 100 100 100 100 100 100 100 100 100 100 100 94 100 100 100 100 100 100 100 100 100 100 100 100
64 96 100 100 100 100 100 100 100 100 100 100 100 100 100 100 100 100 100 100 100 100 100 100 100 100 100 100 100 100 100 100 100 100 100 100 100 100
96 100 100 100 100 100 100 100 100 100 100 100 100 100 100 100 100 100 100 100 100 100 100 100 100 100 100 100 100 100 100 100 100 100 100 100 100 100
100 100 100 100 100 100 100 100 100 100 100 100 100 100 100 100 100 100 99 100 99 100 100 100 100 100 100 100 100 100 100 100 100 100 100 100 100 100
100 100 100 100 100 100 100 100 100 100 100 100 100 100 100 100 100 100 100 100 100 100 100 100 100 100 100 100 100 100 100 100 100 100 100 100 100 100
100 100 100 100 100 100 100 100 100 100 100 100 100 100 100 100 100 100 100 100 100 100 100 100 100 100 100 100 100 100 100 100 100 100 100 100 100 100

GFSNE_prec_cloud_033.txt.gz
Cloud_Cover
5 5 17 10 5 2 0 0 4 5 2 0 0 0 5 5 1 5 5 0 2 5 5 74 63 100 100 100 100 100 100 100 100 100 100 100 100 97
5 7 40 5 5 0 0 0 0 5 52 0 0 4 0 5 5 5 2 4 0 5 89 100 100 100 89 97 100 82 82 72 99 100 100 100 100 100
11 5 5 1 0 0 0 2 5 5 5 1 0 0 5 5 5 5 21 5 5 62 100 97 97 100 100 99 100 100 100 100 100 100 100 100 100 100
5 5 0 0 0 0 5 5 5 5 75 60 5 5 5 5 11 5 73 100 46 30 15 100 100 99 41 100 100 100 100 100 89 85 100 98 100 100
0 0 0 0 3 5 5 5 20 92 100 100 31 5 46 38 20 70 94 13 5 52 46 7 93 98 100 100 100 100 100 100 91 84 99 100 90 99
0 0 0 2 5 75 45 80 100 42 5 18 85 88 5 26 62 22 2 9 80 5 5 32 100 100 100 100 100 100 100 100 100 99 100 99 98 91
0 0 0 5 48 95 100 100 81 73 98 100 96 59 98 12 32 23 84 52 89 64 64 100 95 85 25 57 30 14 91 100 100 100 100 86 48 8
5 5 5 5 6 100 100 100 100 100 100 100 100 85 6 89 61 16 100 100 100 96 95 100 100 100 100 100 91 100 100 100 100 100 100 100 83 79
5 5 5 5 42 31 21 98 77 100 100 100 58 91 100 14 91 100 100 100 100 100 96 100 96 100 48 100 96 100 100 100 100 100 100 100 100 100
5 5 29 63 70 100 100 83 100 74 42 75 97 90 100 100 100 100 100 100 93 76 100 100 32 88 15 18 37 100 100 100 100 100 100 100 99 98
5 18 100 79 97 100 100 100 81 25 5 20 96 98 100 100 100 100 97 100 97 100 100 100 97 99 94 95 100 97 98 100 100 100 100 100 100 97
8 84 38 74 100 100 100 100 76 5 97 95 88 87 100 100 100 100 100 100 100 100 100 100 100 99 100 100 99 96 96 100 100 100 100 100 100 100
84 83 5 35 100 100 100 82 70 100 80 73 92 100 100 99 100 100 100 100 100 100 99 100 100 100 100 100 99 99 100 78 93 100 100 100 100 100
100 42 87 100 100 100 86 100 100 100 88 100 100 100 100 100 100 100 100 100 100 100 100 100 100 100 100 86 98 93 100 100 100 100 100 100 99 100
100 100 88 93 34 6 73 100 100 89 100 100 100 100 100 100 100 100 100 100 100 100 100 100 100 100 100 99 99 94 100 100 100 100 100 100 100 100
99 64 5 5 45 99 100 100 96 100 100 100 100 100 100 100 100 100 100 100 100 100 100 100 100 100 94 97 100 100 95 100 100 100 100 100 100 100
100 5 14 76 94 100 100 100 100 100 100 100 100 100 100 100 100 100 100 100 100 100 100 100 100 99 98 100 100 100 100 100 100 100 100 100 100 100
86 56 100 100 100 100 100 100 99 100 100 100 100 100 100 100 100 100 100 100 100 100 100 100 100 97 99 100 100 100 100 100 100 100 100 100 100 100
90 100 100 100 100 100 100 100 100 100 100 100 100 100 100 100 100 96 100 100 100 100 100 100 100 100 100 100 99 100 100 100 100 100 100 100 100 100
100 100 100 100 100 100 100 100 100 97 100 100 100 100 100 100 100 100 100 100 100 100 100 100 100 100 100 100 100 100 100 100 100 100 100 100 100 100
100 100 100 100 100 100 100 100 100 100 100 100 100 100 100 100 98 100 100 100 97 100 100 100 100 100 100 100 100 100 100 100 100 100 100 100 100 100
100 100 100 100 100 100 100 100 100 100 100 100 100 100 100 100 100 100 100 99 99 95 100 100 100 100 100 100 100 100 100 100 100 100 100 100 100 100
100 100 100 100 100 100 100 100 100 100 100 100 100 100 100 100 100 100 97 93 95 85 86 100 100 100 100 100 100 100 100 100 100 100 100 100 100 100

GFSNE_prec_cloud_036.txt.gz
Cloud_Cover
5 5 5 5 4 2 0 0 2 5 5 1 5 0 4 2 5 5 5 5 79 98 57 86 100 100 100 100 100 100 100 100 98 100 100 100 100 100
5 5 3 0 0 0 0 0 0 5 41 4 1 4 5 49 5 13 13 38 3 5 98 100 100 100 100 100 99 88 100 100 100 100 100 100 100 100
5 5 4 0 0 0 0 0 4 5 46 4 5 5 5 5 16 100 74 19 5 7 45 76 100 100 100 100 100 100 100 100 100 100 100 100 100 100
5 0 0 0 4 4 0 5 5 5 100 94 5 5 5 4 14 6 98 100 57 5 18 100 100 100 100 100 100 100 100 100 100 100 100 100 100 100
2 2 5 3 0 1 5 5 6 79 91 68 6 5 8 55 17 68 21 5 5 3 5 14 100 100 100 100 100 100 100 100 100 100 100 100 100 100
5 2 0 5 1 42 69 76 100 50 64 86 88 95 10 24 100 77 4 5 5 5 9 100 99 100 100 100 100 100 100 100 100 100 100 100 100 100
0 3 5 3 26 100 100 96 95 98 100 86 6 84 100 26 5 5 32 61 64 81 67 41 95 14 8 27 45 92 100 100 100 100 100 100 100 100
5 5 0 5 18 99 99 100 100 97 17 100 100 25 10 5 28 85 100 100 99 98 100 48 72 86 7 27 77 100 100 100 100 100 100 100 100 100
1 4 2 5 22 5 7 81 7 100 94 77 26 19 99 58 100 100 100 100 100 99 96 100 41 89 15 5 60 100 100 100 100 100 100 100 100 100
5 5 60 6 5 100 92 82 99 21 5 5 100 95 100 100 100 100 100 100 100 100 100 100 82 100 100 99 100 96 100 100 100 100 100 100 100 100
4 88 78 36 39 100 100 78 78 7 2 28 100 99 75 100 100 100 100 100 100 100 100 100 100 97 100 100 100 100 100 100 100 100 100 100 100 100
64 63 87 74 100 100 100 82 32 7 98 100 98 100 100 100 100 100 100 100 100 100 97 100 100 99 100 100 86 100 80 69 98 100 100 100 100 100
13 77 5 79 100 100 100 52 54 100 93 96 100 100 100 100 98 100 100 100 100 100 97 100 100 100 100 98 100 94 97 99 100 100 100 100 100 100
82 5 88 100 100 100 84 100 100 99 78 100 100 100 100 100 100 100 100 100 100 100 99 100 100 100 100 100 98 99 100 99 100 100 100 100 100 100
57 98 90 64 9 54 73 100 95 98 100 100 100 100 100 100 100 100 100 100 100 100 100 93 100 100 100 100 99 90 99 100 100 100 100 100 100 98
90 54 5 5 62 98 63 8 93 100 100 100 100 100 100 100 100 100 100 100 100 100 100 100 100 100 96 100 100 100 100 100 100 100 100 100 100 100
100 5 6 56 92 78 95 98 100 100 100 100 100 100 100 100 100 100 100 100 100 100 100 100 99 99 95 100 100 100 100 100 100 100 100 100 100 100
76 46 100 100 100 100 100 100 100 100 100 100 100 100 100 100 100 95 100 100 100 100 100 100 98 100 97 100 100 100 100 100 100 100 100 100 100 100
96 100 100 100 100 100 100 100 100 100 100 100 100 100 100 100 100 100 100 97 100 100 100 100 100 100 87 100 100 100 100 100 100 100 100 100 100 100
100 100 100 100 100 100 100 100 98 97 100 100 100 100 100 100 100 99 100 100 100 100 100 100 100 100 100 100 100 100 100 100 100 100 100 100 100 100
100 100 100 100 100 100 100 100 100 100 100 100 100 100 100 100 88 98 99 96 92 97 100 100 100 100 100 100 100 100 100 100 100 100 100 100 100 100
100 100 100 100 100 100 100 100 100 100 100 100 100 100 100 100 100 100 100 99 89 100 100 100 100 100 99 99 100 100 100 100 100 100 100 100 100 100
100 100 100 100 100 100 100 100 100 100 100 100 100 100 100 100 98 98 100 100 91 83 90 100 100 100 100 97 100 100 100 100 100 100 100 100 100 100

GFSNE_prec_cloud_039.txt.gz
Cloud_Cover
5 5 5 0 1 0 0 0 5 35 7 3 4 3 5 5 5 5 5 5 30 100 100 100 100 100 100 100 100 100 92 100 100 94 100 100 100 100
5 5 5 0 0 0 0 0 3 5 90 5 5 5 8 81 5 5 4 5 5 8 100 100 100 100 100 100 100 100 100 100 100 100 100 100 100 100
5 5 5 4 0 0 0 0 5 5 90 10 5 5 5 5 5 5 58 52 5 54 97 100 100 100 100 100 100 100 100 100 100 100 100 100 100 100
5 5 3 4 0 0 0 5 5 5 99 100 6 5 5 5 5 96 100 100 100 2 10 100 100 100 100 100 100 100 78 100 100 100 100 100 100 100
5 4 0 0 0 0 5 5 83 100 98 96 67 36 46 90 94 89 19 5 5 4 8 26 99 100 100 100 100 100 100 100 100 100 100 100 100 100
5 0 0 0 1 14 59 75 89 14 28 91 100 100 100 72 24 12 5 5 5 38 88 42 100 100 97 99 100 100 100 100 100 100 100 100 100 100
0 0 0 2 5 90 100 85 91 85 97 100 100 88 6 4 5 5 62 95 99 100 93 84 30 5 28 12 6 5 82 100 100 100 100 100 100 100
0 0 0 2 5 36 86 100 100 100 98 100 96 74 13 5 81 100 100 100 99 100 100 100 91 97 48 28 9 100 100 100 100 100 100 100 100 100
0 0 3 5 5 8 7 44 100 99 69 48 22 15 66 86 100 100 100 100 100 100 100 100 96 99 100 80 99 100 100 100 100 100 100 100 100 100
2 5 55 5 32 100 84 97 5 5 5 5 85 98 100 100 100 100 100 100 100 100 100 100 98 72 98 100 100 100 100 100 100 100 100 100 100 100
5 98 59 92 99 100 100 85 63 4 5 46 99 100 100 100 100 100 100 100 100 100 99 100 99 97 98 100 100 78 100 100 100 100 100 100 100 100
99 58 44 92 100 100 100 97 67 55 98 91 100 100 96 98 100 100 100 100 100 100 81 100 94 96 100 99 100 100 87 78 100 100 100 100 100 100
13 49 5 58 100 100 100 75 62 100 100 100 100 99 98 97 82 100 100 100 100 100 87 100 100 96 100 84 98 100 97 96 100 96 100 100 100 100
76 8 40 100 100 83 73 100 100 97 100 100 100 100 100 99 97 100 100 98 100 100 93 100 100 100 100 96 97 85 100 100 100 100 100 100 100 100
69 100 100 78 7 5 70 100 94 66 92 100 100 100 100 100 100 100 77 75 87 76 99 86 100 100 100 100 100 92 100 100 100 100 100 100 98 100
82 76 5 5 5 28 73 23 79 100 100 100 100 100 100 100 100 100 100 100 100 99 100 100 100 100 99 100 100 100 100 100 100 100 100 100 100 100
100 11 5 30 71 74 83 92 100 100 100 100 100 100 100 100 98 95 100 100 100 100 100 100 100 100 100 100 100 100 100 100 100 100 100 100 98 91
72 28 97 100 100 100 100 100 100 100 100 100 100 100 100 100 100 97 99 100 100 100 100 100 100 100 100 100 100 100 100 100 100 100 100 100 100 100
89 100 100 100 100 100 100 100 100 100 100 100 100 100 100 98 100 100 100 100 94 100 100 100 100 100 100 100 100 100 100 100 100 100 100 100 100 100
100 100 100 100 100 100 100 100 100 100 100 100 100 100 100 100 100 98 100 100 100 94 99 100 100 100 100 100 100 100 100 100 100 100 100 100 100 100
100 100 100 100 100 100 100 100 100 100 100 100 98 100 100 100 86 95 100 88 96 95 99 100 100 100 100 100 100 100 100 100 100 100 100 100 100 100
100 100 100 100 100 100 100 100 100 100 100 100 100 100 100 100 100 100 96 100 94 100 90 100 100 100 84 100 100 100 100 100 100 100 100 100 100 100
100 100 100 100 100 100 100 100 100 100 100 100 100 100 100 99 98 100 100 96 100 86 86 100 100 100 100 100 100 100 100 100 100 100 100 100 100 100

GFSNE_prec_cloud_042.txt.gz
Cloud_Cover
5 5 5 5 1 0 0 3 3 5 1 0 0 3 5 5 5 5 5 5 47 97 100 100 100 100 100 100 100 100 100 100 100 100 100 100 100 100
5 5 5 5 0 0 4 3 5 5 71 4 5 5 5 9 5 5 5 5 5 8 100 100 100 100 100 100 100 100 100 100 100 100 100 100 100 100
5 5 4 0 0 0 5 0 5 5 88 13 5 5 5 5 5 17 95 5 5 5 98 100 100 100 100 100 100 100 100 100 100 100 100 100 100 100
5 5 4 0 0 0 0 5 5 5 97 96 5 5 5 5 65 100 21 5 5 5 100 100 100 100 100 100 100 100 100 100 100 100 100 100 100 100
5 0 0 0 0 3 5 5 12 90 76 66 40 10 12 100 70 5 3 3 5 5 16 100 100 100 100 100 100 100 100 100 100 100 100 100 100 100
5 5 4 0 1 8 38 53 99 13 6 91 91 100 82 5 5 5 5 5 42 63 57 100 95 100 100 100 100 100 100 100 100 100 100 100 100 100
5 4 0 2 5 57 100 98 97 20 97 100 99 25 44 6 5 8 96 60 100 84 100 97 86 40 96 100 100 80 100 100 100 100 100 100 100 100
5 5 0 5 5 45 78 100 100 100 86 85 88 99 12 69 100 100 100 100 97 88 100 100 48 68 72 63 51 100 100 100 100 100 100 100 100 100
5 4 5 5 5 5 8 90 100 93 64 51 16 10 76 58 100 100 100 100 100 90 98 100 51 65 92 100 100 100 100 100 100 100 100 100 100 100
4 5 5 5 5 100 98 100 9 5 5 5 83 100 100 99 100 100 100 100 99 88 53 98 83 32 98 100 100 100 100 100 100 100 100 100 100 100
5 70 37 60 96 100 100 79 5 5 4 24 97 74 30 82 100 100 100 100 100 100 56 99 36 91 93 100 90 99 88 100 100 100 100 100 100 100
80 10 28 100 100 100 100 100 36 9 91 97 87 6 5 75 86 98 100 100 100 100 44 100 92 95 92 89 100 100 96 100 100 100 100 100 100 100
15 67 32 93 100 100 100 66 76 100 83 56 53 31 82 54 23 92 100 100 100 100 81 100 98 94 100 84 89 97 100 99 100 87 100 100 100 100
95 20 82 100 100 91 40 99 100 96 8 96 100 100 100 98 82 100 98 98 100 100 77 100 99 100 100 95 97 71 100 100 100 95 97 98 100 100
93 99 98 74 7 5 81 98 92 40 99 100 100 100 100 94 83 100 76 70 60 82 100 98 100 100 100 100 100 100 100 33 92 100 100 100 100 100
77 58 5 5 5 10 5 5 18 95 100 100 100 100 100 91 99 89 100 100 100 20 100 100 100 100 100 99 100 100 100 100 100 100 100 100 100 100
100 5 5 15 41 41 33 71 75 100 100 100 100 100 97 100 87 96 100 100 100 99 65 100 100 100 100 94 100 100 100 100 100 100 100 100 100 86
28 13 83 100 100 100 100 100 100 100 100 100 100 100 100 100 100 91 100 100 100 95 100 100 100 100 100 100 100 100 100 100 100 100 100 100 100 100
42 99 100 100 100 100 100 100 100 100 100 100 100 100 100 98 100 100 100 100 97 99 100 100 100 100 99 98 100 100 100 100 100 100 100 100 100 100
99 100 100 100 100 100 100 100 100 98 100 100 100 100 100 100 99 98 99 100 99 94 85 100 100 100 100 100 100 100 100 100 100 100 100 100 100 100
100 100 100 100 100 100 100 100 100 100 100 100 100 100 100 100 86 98 100 96 100 93 94 98 100 100 100 100 100 98 100 100 100 100 100 100 100 100
100 100 100 100 100 100 100 100 100 100 100 100 100 100 100 100 100 100 95 100 88 100 89 95 100 100 100 100 100 100 100 100 100 100 100 100 100 100
100 100 100 100 100 100 100 100 100 100 100 100 100 96 100 99 98 100 100 100 100 82 62 100 100 100 100 100 98 100 100 100 100 100 100 100 100 100

GFSNE_prec_cloud_045.txt.gz
Cloud_Cover
5 5 3 2 0 0 0 0 5 3 0 0 0 2 5 21 3 5 30 75 53 75 100 100 100 100 100 100 100 100 100 100 100 99 100 100 100 100
5 5 0 0 0 0 0 0 5 5 11 0 1 5 60 5 34 99 74 5 5 89 100 100 100 100 100 100 100 100 100 99 100 100 100 100 100 100
5 0 0 0 0 0 0 0 5 5 23 5 5 5 5 5 89 100 100 96 18 36 77 100 100 100 100 100 100 100 100 100 100 100 100 100 100 100
0 1 5 3 5 0 0 5 5 12 98 99 5 5 4 63 98 99 12 5 5 5 79 100 100 100 100 100 100 100 100 100 100 100 100 100 100 100
1 4 5 5 1 0 7 68 81 96 100 100 10 20 69 96 31 5 4 8 5 5 90 66 88 100 100 100 100 100 100 100 100 100 100 100 100 100
5 5 5 1 5 18 97 100 100 95 79 61 98 98 34 5 5 18 12 38 77 28 34 88 81 93 99 84 92 100 100 100 100 100 100 100 100 100
5 5 5 5 5 86 100 100 99 90 98 100 92 8 10 10 28 31 98 95 95 29 85 93 11 23 5 19 13 15 100 100 100 100 100 100 100 100
5 5 3 5 5 94 73 100 100 100 100 100 87 93 8 97 85 100 100 100 99 36 85 90 51 15 5 6 5 99 100 100 100 100 100 100 100 100
5 2 5 5 5 5 19 96 100 89 47 81 73 86 87 88 100 99 100 100 100 55 66 100 22 26 14 58 71 46 90 100 100 100 100 100 100 100
0 5 5 5 57 100 94 98 10 59 51 62 94 98 100 100 100 100 98 100 98 44 69 99 5 18 92 87 95 100 87 100 100 100 100 100 100 100
5 5 5 98 100 100 100 60 99 64 5 39 94 85 14 58 96 100 80 100 100 98 12 85 61 97 74 100 86 5 67 100 100 100 100 100 100 100
84 67 93 100 100 100 100 100 93 7 87 93 5 5 5 60 96 100 100 100 100 100 56 100 95 96 100 10 15 8 46 100 100 100 100 100 100 100
21 71 58 93 100 100 100 94 90 100 93 8 26 52 84 97 98 91 100 100 100 100 31 100 93 100 100 100 28 89 30 34 80 90 100 100 100 100
97 59 88 100 95 76 41 96 100 99 37 98 94 97 100 100 100 98 97 100 98 100 91 99 98 100 100 94 98 21 99 70 72 89 100 96 100 100
72 98 76 54 5 5 32 94 98 80 97 100 100 100 100 100 100 100 88 97 86 79 36 86 100 98 100 100 100 92 82 89 70 100 100 100 100 100
50 51 5 5 5 5 12 7 79 99 100 100 100 100 100 100 100 100 100 100 100 18 5 61 100 100 100 100 100 96 74 100 100 100 100 100 100 100
100 13 5 6 18 29 69 64 98 97 99 100 100 100 100 100 100 100 100 100 100 97 68 19 100 100 100 92 100 86 100 100 100 100 100 100 100 100
82 6 47 99 100 98 100 100 100 100 100 100 100 100 100 100 100 96 100 100 100 98 98 86 92 100 100 100 100 99 100 100 100 100 100 100 100 100
29 84 100 100 100 100 100 100 100 100 100 100 100 100 100 100 100 100 100 100 100 100 92 89 100 100 100 100 100 100 100 100 100 100 100 100 100 100
97 100 100 100 100 100 100 100 100 100 100 100 100 100 100 100 100 100 100 100 100 100 80 92 100 100 100 100 100 100 100 100 100 100 100 100 100 100
100 100 100 100 100 100 100 100 100 100 100 100 100 100 100 100 94 100 100 99 99 96 95 81 100 100 100 100 100 100 100 100 100 100 100 100 100 100
100 100 100 100 100 100 100 100 100 100 100 100 100 100 100 100 100 100 100 100 93 98 100 73 100 100 94 100 100 97 100 100 100 100 100 100 100 100
100 100 100 100 100 100 100 100 100 100 100 100 100 100 100 100 100 100 100 100 100 100 84 82 100 100 96 100 100 100 100 100 74 100 100 100 100 100

GFSNE_prec_cloud_048.txt.gz
Cloud_Cover
5 5 5 5 5 5 0 0 0 0 0 0 0 0 0 5 5 17 84 80 12 100 100 100 100 100 100 100 100 100 100 100 100 100 100 100 100 100
5 5 5 5 5 0 0 0 0 0 0 0 0 5 10 15 64 98 96 9 91 98 99 100 100 100 100 100 100 100 100 100 100 100 100 100 100 100
5 5 5 3 0 0 0 0 0 0 4 1 5 5 83 97 96 100 95 65 15 9 6 100 100 100 100 100 100 100 100 100 100 100 100 100 100 100
6 5 2 0 0 0 0 0 5 5 73 5 12 34 38 96 100 100 45 8 49 23 100 100 100 100 100 100 100 100 100 100 100 100 100 100 100 100
5 1 0 0 0 0 5 13 85 96 99 96 15 5 41 95 100 12 68 100 84 100 100 100 100 100 100 100 100 100 100 100 100 100 100 100 100 100
5 0 0 1 1 5 18 72 100 99 100 100 96 16 96 22 15 99 80 74 97 98 32 100 94 97 79 7 51 81 94 100 100 100 100 100 100 100
5 5 5 5 5 65 98 100 100 98 92 95 98 62 5 56 85 99 99 91 90 100 13 16 49 5 5 5 5 19 86 100 100 100 100 100 100 100
5 5 5 5 19 87 100 100 100 99 100 100 94 75 93 100 98 100 100 100 100 81 97 100 64 5 5 5 5 49 100 100 100 100 100 100 100 100
5 5 5 22 85 100 100 100 100 94 100 100 100 100 100 99 100 94 87 100 100 65 100 100 5 5 5 5 5 79 78 88 100 100 100 100 100 100
5 5 64 92 100 100 100 72 88 98 100 94 98 100 100 99 100 99 99 93 62 75 100 100 18 6 13 21 39 38 51 86 97 100 100 100 100 100
5 55 93 100 100 100 98 83 100 99 93 99 100 100 100 94 99 99 63 100 96 90 15 100 93 54 68 70 100 89 5 6 84 100 100 100 100 100
6 56 78 100 100 100 99 100 99 78 44 84 100 93 100 100 98 100 100 100 100 100 5 100 94 100 94 100 96 11 46 46 92 100 100 100 100 100
77 74 91 90 100 100 100 100 100 100 93 99 98 94 99 99 97 99 100 100 100 100 17 100 100 100 100 92 64 10 76 5 14 98 53 70 100 100
92 100 83 100 60 64 33 63 99 100 99 99 97 94 98 96 96 98 97 97 99 100 77 100 99 100 100 100 96 100 68 73 68 95 100 100 100 100
100 100 99 41 5 5 30 98 97 99 100 100 100 100 99 100 100 100 97 100 97 96 80 92 99 100 100 100 100 98 97 74 77 100 100 100 100 100
100 64 44 21 5 10 15 60 96 100 100 100 100 100 100 100 100 100 100 99 100 59 5 74 93 100 100 100 100 100 100 100 100 100 100 100 100 100
98 39 5 5 25 30 92 97 98 99 100 100 100 100 100 100 100 99 100 100 100 100 92 64 93 100 100 100 100 99 91 100 100 100 100 100 100 100
39 5 6 81 93 94 98 98 95 99 100 100 100 100 100 100 100 91 99 100 100 100 100 99 83 87 100 100 97 98 98 100 100 100 100 100 100 100
5 40 100 100 100 100 100 100 100 100 100 100 100 100 100 100 100 100 100 100 100 100 100 100 100 100 100 100 100 100 100 100 100 100 100 100 100 100
81 100 100 100 100 100 100 100 99 100 100 100 100 100 100 100 100 100 100 100 100 98 100 100 86 100 100 100 100 100 94 100 100 100 100 100 100 100
99 100 100 100 100 100 100 100 100 100 100 100 100 100 100 100 100 100 100 97 100 100 100 100 93 100 98 100 100 100 100 100 100 100 100 100 100 100
100 100 100 100 100 100 100 100 100 100 100 100 100 100 100 100 100 100 100 100 99 100 100 100 100 100 86 100 100 95 100 100 100 100 100 100 100 100
100 100 100 100 100 100 100 100 100 100 100 100 100 100 100 100 100 100 100 100 100 100 100 100 98 98 86 100 100 100 87 69 98 100 90 100 100 100

GFSNE_prec_cloud_051.txt.gz
Cloud_Cover
36 5 5 5 5 2 3 4 0 3 5 5 0 0 0 0 0 4 1 5 45 58 77 100 100 100 100 100 100 100 100 100 100 100 100 100 100 100
5 5 5 5 5 5 5 5 5 0 0 0 0 0 2 3 1 5 7 15 3 5 99 100 100 100 100 100 100 100 100 100 100 100 100 100 100 100
5 5 5 5 5 5 5 5 5 0 0 0 5 5 3 5 5 15 28 4 5 2 52 100 100 100 100 100 100 100 100 100 100 100 100 100 100 100
5 5 5 5 5 5 2 0 0 1 5 5 5 5 56 5 56 95 57 7 2 11 100 100 100 100 100 100 100 100 100 100 100 100 100 100 100 100
5 5 5 5 5 5 0 0 5 5 5 5 5 5 5 14 92 49 3 5 5 5 76 67 98 100 100 100 100 100 100 100 100 100 100 100 100 100
5 5 5 4 0 0 4 5 5 6 47 26 5 5 84 72 6 62 67 5 5 5 14 5 59 70 62 12 75 91 100 100 100 100 100 100 100 100
5 5 1 0 0 6 65 12 75 84 7 66 96 100 8 5 72 5 94 74 5 95 18 42 5 4 5 5 5 37 99 99 100 100 100 100 100 100
5 5 0 0 3 39 80 98 100 100 100 100 100 95 48 5 68 93 85 100 93 27 98 5 5 5 5 5 5 77 94 100 100 100 100 100 100 100
0 0 1 5 5 29 33 96 89 86 100 100 100 36 68 5 83 36 89 92 100 91 97 50 5 5 5 5 5 5 32 39 73 100 100 100 100 100
0 1 5 5 8 84 75 74 85 59 83 99 100 68 65 100 100 100 93 73 20 5 86 99 5 5 5 5 5 95 91 87 98 100 100 100 100 100
1 0 5 33 80 100 100 82 47 5 6 72 36 89 100 100 100 100 71 87 98 90 58 100 63 43 51 5 35 100 98 100 22 90 100 100 100 100
5 5 35 72 98 100 100 74 30 5 7 38 47 5 27 14 98 99 100 100 100 99 48 100 88 94 94 5 53 93 89 100 5 44 94 100 100 99
5 5 5 83 100 100 97 51 84 100 100 32 5 5 5 30 89 100 100 100 100 100 70 100 100 96 100 82 25 71 36 78 18 62 94 100 100 100
5 14 10 98 99 67 56 63 99 100 37 75 45 79 94 100 100 100 100 100 100 100 98 100 100 100 100 96 94 96 98 96 92 77 88 100 100 100
6 62 70 44 64 6 17 95 100 70 100 91 100 89 93 99 93 94 93 87 98 78 66 99 100 100 100 100 100 98 100 74 98 100 99 100 100 100
31 8 5 22 5 5 5 5 5 46 100 100 80 67 90 98 100 100 100 100 100 34 79 82 100 100 100 99 100 100 100 100 100 100 100 100 100 100
82 5 5 2 4 5 5 5 5 63 98 88 100 100 100 100 100 99 100 100 100 100 78 47 94 100 100 100 100 100 100 98 100 100 100 100 100 100
17 5 5 5 5 5 51 73 91 100 100 100 100 100 100 100 100 94 97 100 100 100 100 100 100 100 53 100 100 100 76 90 100 100 100 100 100 100
5 5 5 39 57 97 96 100 97 100 100 100 100 100 100 100 100 100 100 100 100 100 100 100 100 100 100 100 100 100 100 78 100 100 100 100 100 100
5 53 25 71 82 96 98 100 100 100 100 100 100 100 100 100 100 100 100 100 100 100 100 100 100 100 100 100 100 100 100 99 100 100 100 100 100 100
5 24 63 86 96 91 100 100 100 100 100 100 100 100 100 100 91 99 100 99 100 100 100 99 100 99 100 100 100 96 100 100 100 100 100 100 100 100
16 72 84 93 98 100 100 100 100 100 100 100 100 100 100 100 100 100 100 100 98 96 100 100 98 100 100 100 100 100 100 86 100 100 100 100 100 100
99 99 96 100 100 100 100 100 100 100 100 100 100 100 100 100 100 100 100 100 100 100 100 100 100 100 100 100 99 100 95 84 94 84 100 100 100 100

GFSNE_prec_cloud_054.txt.gz
Cloud_Cover
100 68 12 12 5 5 5 5 2 1 4 5 5 5 5 3 5 0 0 0 5 31 66 96 99 100 100 100 100 100 100 100 100 100 100 100 100 100
65 38 5 7 5 5 5 5 0 0 0 0 0 0 5 0 0 3 0 1 5 5 50 100 100 100 100 100 100 100 100 100 100 100 100 100 100 100
59 38 5 5 5 5 4 0 0 0 0 0 0 5 5 4 4 2 3 5 5 5 40 100 100 100 100 100 100 100 100 100 100 100 100 100 100 100
60 6 5 5 5 2 5 0 0 0 0 5 5 5 5 0 2 5 5 0 2 5 94 91 100 92 100 100 100 100 100 100 100 100 100 100 100 100
10 37 5 4 5 5 0 0 0 1 5 5 5 5 5 5 32 13 2 5 5 3 5 5 6 34 51 100 100 97 98 98 100 100 100 100 100 100
6 5 5 5 5 5 2 4 5 5 5 5 20 83 98 68 30 5 5 5 5 5 5 5 43 5 5 5 38 65 89 100 100 100 100 100 100 100
23 5 5 5 1 4 5 5 50 62 58 94 93 100 100 97 69 51 5 5 5 36 95 5 5 5 5 5 5 5 77 100 100 100 100 100 100 100
34 5 4 0 0 3 5 68 83 99 100 93 96 100 95 29 97 57 5 89 100 64 74 21 8 5 5 5 5 78 100 100 100 100 100 100 100 100
10 5 5 0 0 5 5 17 12 30 79 99 78 26 67 78 90 90 87 99 99 66 95 92 5 5 5 5 9 66 72 40 94 100 100 100 100 100
5 5 0 0 5 5 38 95 26 5 5 78 100 100 95 59 100 100 98 88 27 65 90 99 25 23 5 5 5 5 5 89 100 88 100 100 100 100
5 1 0 4 5 94 100 71 5 5 5 5 67 95 99 94 99 100 73 100 92 89 8 96 12 62 95 5 2 2 5 49 99 90 100 100 100 100
5 4 5 11 78 99 100 96 72 5 5 31 5 4 4 5 6 52 100 100 100 86 36 98 77 89 100 5 4 5 5 98 100 93 65 84 63 98
5 5 5 33 100 100 100 75 7 100 100 9 5 5 5 5 5 6 99 100 100 100 70 100 100 99 100 83 5 5 5 32 81 99 99 96 100 100
5 5 12 82 88 80 50 22 98 100 16 5 5 5 76 59 5 59 52 98 93 100 89 100 99 99 100 97 98 8 17 89 67 86 45 90 100 100
5 57 89 35 7 4 2 68 71 5 5 35 90 92 65 11 78 92 14 46 99 44 64 98 100 99 100 100 100 73 86 100 98 76 98 96 100 100
10 29 5 5 4 3 4 5 5 5 87 85 65 95 94 96 97 92 100 95 100 16 86 68 100 100 100 100 100 99 78 100 100 91 100 100 100 100
95 5 0 2 2 5 5 5 5 9 91 82 100 100 96 100 92 95 100 100 100 100 63 5 65 100 99 100 99 95 100 100 86 98 99 99 100 100
14 3 5 5 5 5 5 5 23 96 100 100 100 100 100 100 100 94 100 100 100 99 98 72 95 87 23 35 94 99 100 72 73 100 100 100 100 100
3 5 5 5 5 5 37 95 98 100 100 100 100 100 100 100 100 100 100 100 99 100 94 97 100 100 100 90 100 100 100 79 99 100 100 100 100 100
5 5 5 5 6 67 98 100 96 100 100 100 100 100 100 100 100 100 100 100 100 95 94 72 100 100 100 100 100 100 100 100 100 100 99 100 100 100
5 5 5 22 58 94 100 100 100 100 100 100 100 100 100 100 99 100 100 100 100 98 99 100 99 99 90 82 100 82 89 100 100 100 100 100 100 100
10 58 65 85 89 100 100 100 100 99 100 100 100 100 100 100 100 100 100 100 96 100 100 100 96 100 89 100 100 90 100 95 93 100 100 100 100 100
42 93 100 100 100 100 100 100 100 100 100 100 100 100 100 100 100 100 100 100 100 100 100 100 100 99 96 98 100 100 90 80 63 99 100 100 100 100

GFSNE_prec_cloud_057.txt.gz
Cloud_Cover
92 95 98 100 72 71 44 5 5 25 34 5 5 5 5 5 2 0 0 0 5 5 76 100 96 100 100 100 100 100 100 100 100 100 100 100 100 91
55 100 100 96 36 8 5 5 5 5 5 5 5 5 4 5 2 0 0 0 1 5 19 93 100 100 100 100 100 100 100 100 100 100 100 100 100 100
100 100 100 100 89 5 5 5 5 5 5 5 5 0 0 0 0 0 0 1 2 5 5 80 100 99 100 100 100 100 100 100 100 100 100 100 100 100
100 100 100 100 74 74 6 6 12 5 5 5 1 4 5 5 5 5 5 5 2 1 5 82 91 92 100 100 100 100 100 100 100 100 100 100 100 100
100 100 100 100 100 60 7 8 5 5 5 5 5 5 5 5 16 5 5 5 5 5 5 5 35 52 100 97 100 100 92 100 100 100 100 100 100 100
98 99 100 100 100 55 55 34 7 5 5 5 51 5 29 99 72 20 5 5 5 5 5 5 84 5 5 5 7 5 81 99 100 100 100 100 100 100
92 94 100 98 25 57 33 6 5 5 19 100 91 61 100 95 16 5 5 5 5 5 76 5 5 5 5 5 5 5 88 100 100 100 100 100 100 100
90 99 100 61 100 7 5 5 44 95 100 100 100 100 82 5 31 96 5 49 86 7 58 74 52 17 5 5 8 85 84 98 100 100 100 100 100 100
95 100 100 90 5 5 5 5 70 50 100 99 57 13 88 9 18 30 92 100 95 13 84 91 5 5 5 5 5 5 95 96 99 100 100 100 100 100
100 100 86 44 6 5 15 72 92 60 5 38 85 94 94 98 100 100 96 81 45 11 9 100 8 5 5 5 5 5 5 90 98 98 100 100 100 100
100 88 51 5 5 41 98 98 79 8 5 5 11 82 100 85 76 100 13 93 76 81 5 94 9 5 80 5 99 4 5 17 5 65 98 100 100 100
100 24 5 5 50 97 100 100 64 5 8 33 5 4 0 5 5 8 78 100 100 100 8 94 77 87 100 5 100 6 2 5 28 5 75 96 100 100
33 6 5 9 96 98 95 80 34 98 85 6 5 0 3 5 5 5 37 100 100 100 23 100 99 98 100 89 94 30 5 4 5 5 5 76 88 100
8 5 20 87 90 56 29 9 80 90 5 5 5 5 58 40 5 35 29 94 94 95 74 100 100 100 100 94 97 5 5 5 5 5 5 98 100 100
5 81 98 86 7 2 1 8 19 5 5 5 76 74 51 84 82 89 100 100 100 100 98 92 98 99 100 100 99 77 92 29 23 14 48 98 100 100
11 77 9 1 3 5 5 4 5 6 91 85 84 72 100 100 100 100 100 100 100 30 100 67 23 80 100 100 100 100 100 100 68 92 84 100 100 100
75 5 0 2 5 5 5 5 5 12 78 88 100 100 100 100 100 92 100 100 100 96 73 80 5 14 97 98 100 92 93 75 74 100 94 100 100 75
4 1 5 5 5 5 5 6 51 90 100 100 100 100 100 100 100 100 100 100 100 100 100 50 74 82 15 31 23 39 82 98 93 99 100 100 99 99
5 5 5 5 5 50 71 96 100 99 99 100 100 100 100 100 100 100 100 100 100 100 84 85 100 100 100 97 9 86 100 100 96 100 100 100 100 100
5 5 5 17 74 96 100 100 100 100 100 100 100 100 100 100 100 100 100 100 100 92 96 75 84 100 100 100 100 92 99 83 99 97 78 74 100 100
14 63 73 92 100 100 100 100 100 100 100 100 100 100 100 100 94 100 100 97 100 98 96 93 81 94 100 99 99 93 97 100 100 100 100 100 92 97
67 92 99 100 100 100 100 98 100 100 100 100 100 100 100 100 100 100 100 100 96 100 92 87 62 83 96 100 99 100 100 100 100 100 100 100 100 100
74 100 100 100 100 100 100 100 100 100 100 100 100 100 100 100 95 100 100 100 100 100 100 92 100 100 100 100 100 100 100 100 100 100 100 100 100 100

GFSNE_prec_cloud_060.txt.gz
Cloud_Cover
100 92 50 38 5 18 5 27 62 66 100 100 100 100 99 73 14 5 5 5 5 5 5 10 74 97 100 100 100 100 100 100 100 100 100 100 100 100
98 57 8 5 17 40 5 5 5 9 35 100 100 100 100 100 100 63 5 5 5 5 6 85 100 100 100 100 100 100 100 100 100 100 100 100 94 100
94 5 55 34 5 24 5 5 5 5 5 37 66 100 100 99 70 5 5 3 0 5 12 78 98 100 100 100 100 100 100 100 100 100 100 100 100 100
79 96 71 33 55 32 5 45 21 6 5 5 5 8 5 5 5 5 4 5 5 5 11 66 26 86 99 100 100 100 100 100 100 100 100 100 100 100
100 98 5 13 58 56 59 90 32 9 5 5 5 5 5 5 5 5 5 5 5 5 5 5 5 73 99 99 98 100 100 97 100 90 95 100 100 100
100 15 38 85 77 36 86 100 61 7 10 5 17 41 5 5 5 30 5 5 5 5 5 5 59 11 16 6 5 10 28 99 99 97 100 100 100 100
57 72 72 70 18 92 100 100 88 86 24 77 92 20 61 50 5 5 18 5 5 5 5 5 5 5 5 5 5 5 44 100 100 100 100 100 100 100
72 50 13 53 94 100 100 100 20 58 98 98 98 97 40 5 5 19 70 98 98 6 5 63 6 5 5 5 5 64 95 96 100 100 100 100 100 100
68 88 89 98 100 100 84 41 98 56 92 100 95 25 5 5 48 72 92 100 99 15 52 94 5 5 5 5 5 5 70 92 100 100 100 100 100 100
99 93 100 100 100 100 99 69 48 94 34 6 29 26 68 89 100 100 90 68 25 5 5 97 7 5 5 5 5 5 5 18 98 100 100 100 100 100
100 100 97 100 100 98 91 99 72 22 5 5 6 74 84 62 48 96 43 96 91 72 5 72 13 5 5 5 5 62 5 50 11 13 91 100 100 100
100 100 100 94 96 82 100 88 74 5 32 73 5 4 1 5 5 5 50 100 100 99 5 77 80 86 86 5 41 100 8 5 5 20 77 96 100 100
100 100 100 91 99 88 76 36 5 84 89 6 3 2 5 5 5 5 59 99 100 100 99 100 100 97 100 83 59 98 8 4 5 5 5 29 47 100
100 68 31 64 87 16 5 5 68 84 6 5 5 5 34 6 5 33 100 100 97 94 84 100 99 95 100 100 99 59 5 5 5 5 34 15 30 36
5 62 83 39 6 3 4 9 30 5 5 34 93 93 87 83 64 87 97 100 100 100 100 100 100 98 100 100 100 77 90 19 51 35 5 36 33 82
21 8 2 0 0 5 3 4 5 6 92 85 94 96 93 100 100 93 100 100 100 100 100 75 82 89 99 99 100 96 98 100 78 73 83 99 100 97
6 0 0 2 5 5 5 5 5 12 80 92 100 100 100 100 99 79 100 100 100 100 95 21 60 84 85 98 100 88 96 99 78 93 100 100 100 100
4 3 5 5 5 5 12 44 64 86 100 100 100 100 100 100 100 86 100 100 100 100 100 48 61 92 51 41 51 96 61 85 65 84 100 100 100 100
5 5 5 14 61 86 96 100 100 100 92 100 100 100 100 100 100 100 100 100 99 100 75 52 100 100 100 95 29 100 100 72 73 100 87 100 100 99
5 13 72 85 100 100 100 100 100 100 100 100 100 100 100 100 100 100 100 100 100 86 96 99 100 100 100 100 100 76 100 100 100 100 82 60 79 76
5 74 86 100 100 100 100 100 100 100 100 100 100 100 100 100 92 98 100 97 98 100 100 100 100 100 100 100 100 100 100 100 100 100 95 100 88 80
48 99 100 100 100 98 100 100 100 100 100 100 100 100 100 100 100 100 100 100 100 100 100 100 97 100 100 100 100 100 100 100 100 100 100 100 100 100
50 100 100 100 100 100 100 100 100 100 100 100 100 100 100 100 97 100 99 100 100 100 100 100 100 100 100 100 100 100 100 100 100 100 100 100 100 100

GFSNE_prec_cloud_063.txt.gz
Cloud_Cover
100 100 100 100 100 63 74 6 45 5 5 83 100 99 86 97 88 16 10 5 5 5 5 5 17 70 97 99 99 88 100 100 100 100 100 100 100 100
100 100 100 100 100 78 84 77 19 5 5 5 70 20 14 100 100 76 19 12 6 5 5 18 91 99 100 100 100 100 100 100 100 100 100 100 100 100
100 100 100 100 100 95 91 98 85 5 5 5 5 5 5 84 83 82 9 5 5 5 5 39 100 97 100 100 100 100 100 100 100 100 100 100 100 100
100 100 100 100 77 100 99 100 35 5 5 4 5 5 5 86 100 64 5 5 3 2 5 86 91 68 95 96 100 100 100 100 100 100 100 100 100 100
100 100 100 100 100 100 100 91 17 44 58 5 5 5 52 80 5 5 5 5 5 2 4 5 5 14 88 98 100 100 98 98 100 100 100 97 100 100
100 100 100 100 100 100 66 59 66 92 44 26 16 19 16 38 5 16 49 5 5 5 5 5 5 5 17 5 20 12 26 6 95 100 99 93 95 100
100 100 100 92 100 100 100 98 92 85 97 97 70 76 76 81 76 9 34 5 28 5 5 5 5 5 5 5 5 5 5 76 99 100 100 100 100 100
96 100 100 100 100 100 81 50 13 98 77 62 97 99 98 29 5 5 55 82 96 7 5 35 5 5 5 5 5 5 67 100 100 100 100 100 100 100
100 100 100 100 100 95 66 58 98 86 84 100 89 12 5 5 61 70 100 99 100 55 5 96 5 5 0 5 5 5 5 67 99 100 100 100 100 100
100 100 100 100 54 66 99 100 100 100 100 38 5 5 51 91 100 100 100 74 61 13 5 81 5 5 5 5 5 5 5 21 54 100 100 100 100 100
100 100 95 100 100 100 100 100 100 52 5 5 5 13 28 35 12 53 33 98 92 31 5 14 10 6 5 5 5 98 100 94 77 65 98 100 100 100
99 78 100 99 96 92 100 71 5 5 8 13 5 2 0 0 5 5 5 100 100 87 29 84 84 98 37 5 5 74 100 100 67 69 94 99 100 100
100 98 55 20 87 83 71 19 5 46 60 5 0 2 5 5 5 5 6 100 100 100 48 100 99 100 100 77 34 7 23 50 5 5 5 52 95 100
83 34 53 60 33 5 5 5 42 80 6 5 5 5 33 38 5 5 51 70 97 97 57 100 100 99 100 100 99 45 100 22 5 5 5 44 67 51
24 45 10 5 5 1 1 5 30 5 5 31 91 88 82 80 56 86 46 73 67 46 87 77 100 96 100 100 99 83 94 18 5 45 5 41 28 18
32 5 5 1 0 4 2 1 5 6 90 75 90 100 99 94 100 84 100 96 100 46 15 94 56 92 100 99 100 90 93 99 41 52 97 87 100 100
6 4 1 4 5 5 5 5 5 12 75 85 100 99 100 100 98 67 97 100 100 96 62 20 100 100 99 100 100 96 87 90 79 96 100 100 86 81
4 4 5 5 5 15 58 70 74 76 80 100 100 100 100 100 100 86 99 100 100 100 100 44 85 95 57 95 100 97 87 93 77 98 96 100 100 78
5 5 44 58 84 99 100 100 100 93 91 100 100 100 100 98 100 100 100 100 100 100 99 89 100 100 100 100 100 100 100 100 99 86 61 78 98 100
9 38 94 100 100 100 100 100 100 100 100 100 100 99 99 100 100 100 100 100 100 100 100 100 100 100 100 100 100 100 100 100 100 99 90 98 98 99
5 69 86 100 100 100 100 100 100 100 100 100 100 100 98 100 90 99 100 100 100 100 100 100 99 100 100 100 100 100 100 100 100 100 100 100 100 100
5 75 98 100 100 100 97 100 100 100 100 100 100 99 96 100 100 100 100 100 100 100 100 100 100 100 100 100 100 100 100 100 100 100 100 100 100 100
51 72 100 100 99 92 93 97 100 100 100 100 100 94 100 100 100 100 100 100 100 100 100 100 100 100 100 100 100 100 100 100 100 100 100 100 100 100

GFSNE_prec_cloud_066.txt.gz
Cloud_Cover
100 100 100 100 100 100 100 100 100 55 82 100 100 99 32 50 6 5 5 5 5 5 5 5 7 8 65 78 100 87 100 100 100 100 100 100 100 100
100 100 100 100 100 100 100 100 100 100 100 100 100 100 100 100 80 15 6 5 5 5 5 5 16 92 100 100 100 100 100 100 100 100 100 100 100 94
100 100 100 100 100 100 100 100 100 100 100 100 100 100 97 71 49 47 5 4 5 5 5 5 73 100 100 100 100 100 100 100 100 100 100 100 100 100
100 100 100 100 100 100 100 100 100 100 23 28 91 100 100 70 66 20 37 5 5 8 5 70 89 43 96 100 100 100 100 100 100 100 100 100 100 100
100 100 100 100 100 100 100 100 100 100 98 6 5 82 93 94 71 69 14 75 84 38 5 5 5 5 81 95 99 99 97 99 100 100 100 100 100 100
100 100 100 100 100 100 100 100 100 100 100 100 67 7 65 50 45 47 77 40 5 5 5 5 5 5 5 5 9 5 5 5 26 96 100 100 100 100
100 100 100 100 100 100 100 99 100 100 100 88 93 100 57 92 75 88 6 5 38 5 5 5 5 5 5 5 5 5 5 7 87 98 100 100 100 100
100 100 100 100 100 100 100 100 100 100 100 100 100 96 68 99 47 5 60 100 100 48 5 27 5 5 5 5 5 5 5 65 98 100 100 100 100 100
100 100 100 100 100 100 100 100 100 100 100 76 80 100 75 8 83 94 97 100 99 64 9 33 5 5 5 0 5 21 20 83 100 100 100 100 100 100
100 100 100 100 100 94 96 100 100 100 100 100 34 5 47 100 100 97 70 30 32 12 5 89 5 5 5 5 4 98 100 100 100 77 100 100 100 100
100 100 100 100 100 90 98 100 100 100 89 28 5 32 37 12 9 38 5 96 93 59 5 87 12 5 23 5 2 98 100 100 51 20 82 99 100 100
100 100 100 100 100 100 100 100 89 47 10 13 5 2 0 1 5 5 27 100 100 94 5 92 16 82 47 5 56 100 100 100 22 5 29 97 98 100
100 100 100 100 100 100 71 12 6 51 61 5 0 2 5 5 5 5 5 97 100 100 5 100 78 99 100 75 21 5 6 5 5 5 5 27 90 96
100 100 100 100 78 13 5 5 72 79 5 5 5 5 5 5 5 5 5 37 81 97 58 97 98 93 100 96 98 5 5 5 5 5 5 5 66 49
100 100 100 72 8 5 5 44 35 5 5 40 92 75 67 58 11 65 7 20 7 44 30 100 88 99 100 100 99 90 96 16 5 46 6 5 6 37
98 39 5 5 5 5 5 5 5 6 84 55 86 98 92 81 97 68 100 87 100 12 66 34 88 97 99 99 100 84 11 99 16 90 80 100 90 96
15 30 9 5 5 5 5 5 5 8 65 67 100 100 100 99 90 64 92 100 100 100 100 84 71 58 83 100 98 97 100 100 71 86 93 96 65 89
5 5 5 5 15 46 73 69 59 58 75 100 100 100 100 100 100 88 85 100 100 100 100 100 99 100 100 100 99 95 93 100 100 97 100 100 100 97
5 34 62 66 89 99 100 100 100 84 81 100 100 100 100 96 100 100 100 100 99 88 83 91 100 100 100 100 100 100 100 100 100 100 90 96 100 100
45 61 79 92 100 100 100 100 100 96 100 99 100 97 100 100 97 94 100 100 98 95 99 94 93 100 100 100 100 100 100 100 100 100 100 100 100 92
16 55 24 91 100 100 97 97 96 100 100 98 100 100 97 100 90 100 100 94 98 99 98 91 100 99 100 100 100 100 100 100 100 100 100 100 92 100
42 55 7 79 95 88 92 100 100 98 98 100 100 100 95 100 100 100 99 100 98 94 97 100 100 96 100 100 100 100 100 100 100 100 100 100 100 100
55 57 58 68 85 96 100 100 100 100 100 100 100 91 100 100 100 100 100 100 100 100 100 100 100 93 100 100 100 100 71 99 98 100 100 100 100 100

GFSNE_prec_cloud_069.txt.gz
Cloud_Cover
100 100 100 100 100 100 100 100 100 100 100 100 100 100 100 100 100 31 38 5 5 5 5 5 5 5 7 64 90 92 94 99 100 100 100 100 100 100
100 100 100 100 100 100 100 100 100 100 100 100 100 100 100 100 100 79 59 5 5 5 10 5 5 71 84 72 90 91 100 100 100 100 100 100 100 100
100 100 100 100 100 100 100 100 100 100 100 100 100 100 100 100 100 100 98 18 96 99 39 5 5 19 43 78 75 99 100 100 100 100 100 100 100 100
100 100 100 100 100 100 100 100 100 100 100 100 100 100 100 100 100 100 100 100 100 99 66 5 5 5 22 96 100 100 100 100 100 100 100 100 100 100
100 100 100 100 100 100 100 100 100 100 100 100 100 100 100 100 100 100 100 100 100 100 54 5 5 5 5 8 91 95 94 82 99 96 99 98 100 100
100 100 100 100 100 100 100 100 100 100 100 100 100 100 93 100 100 100 100 100 96 92 16 5 5 5 5 5 5 5 5 5 6 63 100 100 100 100
100 100 100 100 100 100 100 100 100 100 100 100 98 100 100 100 84 32 61 89 90 94 36 9 5 5 5 5 5 5 5 5 64 100 100 100 100 100
100 100 100 100 100 100 100 100 100 100 98 100 100 100 100 69 88 100 100 94 95 43 26 88 5 5 5 5 5 5 5 5 95 100 100 100 100 100
100 100 100 100 100 100 100 100 100 99 100 100 100 100 100 100 92 92 92 88 97 16 52 86 5 25 5 5 5 5 5 33 14 99 100 100 100 100
100 100 100 100 100 100 100 100 100 100 100 100 74 83 100 94 97 97 94 89 90 32 66 85 5 5 5 5 5 5 5 5 30 95 100 100 100 100
100 100 100 100 100 100 100 100 100 100 100 100 100 61 22 5 10 77 79 88 96 9 7 79 5 5 6 5 2 0 5 5 5 5 72 99 100 100
100 100 100 100 100 100 100 100 100 100 100 89 6 5 0 1 5 5 79 99 100 88 5 99 11 88 96 5 5 5 5 5 5 5 5 95 99 100
95 100 100 100 100 100 100 100 90 58 18 5 0 4 5 5 5 5 77 99 100 100 10 100 88 96 100 94 28 5 5 5 5 5 5 64 96 99
100 100 100 100 100 100 57 8 66 43 5 5 5 5 35 39 5 5 5 47 89 93 43 98 97 96 100 98 97 10 32 5 31 73 82 64 54 19
100 100 99 52 23 5 5 23 11 5 5 75 95 94 90 85 64 83 78 67 91 83 80 78 96 97 100 100 99 78 99 23 6 38 62 83 89 84
7 5 7 34 45 6 5 5 5 9 89 92 100 93 94 100 92 94 96 96 95 19 5 5 9 85 98 99 98 100 84 100 97 73 90 100 100 99
19 50 22 5 5 5 5 5 5 26 91 99 100 98 95 96 91 92 96 97 100 94 61 88 49 79 97 98 100 100 100 97 63 97 100 100 100 97
5 5 5 32 62 69 77 57 69 89 100 98 100 100 99 100 99 95 94 99 100 94 100 100 100 100 99 100 94 84 87 91 100 98 100 100 100 100
5 5 50 80 94 100 100 100 98 100 75 100 100 100 100 99 100 100 98 97 98 96 99 96 100 100 100 100 100 98 100 97 76 100 100 100 100 100
5 8 60 83 100 100 100 100 100 100 100 100 100 96 100 100 100 100 100 100 100 100 100 91 91 100 100 100 100 96 100 100 100 95 87 82 98 100
5 5 15 62 94 100 100 100 100 100 100 100 100 100 97 100 100 100 100 96 100 99 99 98 81 98 100 96 100 100 100 100 100 100 100 100 100 100
5 5 5 32 68 82 98 100 100 100 100 100 100 100 100 100 100 100 98 100 100 92 98 95 100 100 100 100 100 100 100 100 100 100 100 100 100 100
5 5 5 5 5 60 91 100 100 100 100 100 100 100 100 100 100 100 98 97 100 100 100 100 94 100 100 100 100 100 100 100 100 100 100 100 100 100

GFSNE_prec_cloud_072.txt.gz
Cloud_Cover
100 100 100 100 100 100 100 100 100 98 100 100 100 100 100 100 100 100 100 100 100 100 100 100 100 30 22 9 5 5 5 11 10 80 100 88 100 100
100 100 100 100 100 100 100 100 100 100 100 100 100 100 100 100 100 96 100 100 100 100 100 78 100 88 36 44 6 64 99 94 91 100 100 100 100 100
100 100 100 100 100 100 100 100 100 100 100 100 100 100 100 100 100 100 81 98 80 99 95 97 15 23 10 6 14 67 33 94 100 100 100 100 100 100
100 100 100 100 100 100 100 100 100 100 100 100 100 100 100 100 100 100 100 82 100 88 28 10 5 59 64 13 8 7 84 78 100 100 100 100 99 100
100 100 100 100 100 100 100 100 100 100 100 100 100 100 100 100 100 94 96 96 91 60 17 19 33 23 92 5 5 5 21 56 66 69 74 99 100 100
100 100 100 100 100 100 100 100 100 100 100 100 100 100 100 100 100 100 100 98 100 100 100 100 99 71 42 10 5 5 5 5 5 5 68 91 79 89
100 100 100 100 100 100 100 100 100 100 100 100 100 100 100 100 53 36 29 70 100 100 100 100 94 6 5 5 5 4 5 5 7 74 92 100 100 100
100 100 100 100 100 100 100 100 100 100 100 100 100 100 100 63 18 40 100 100 100 100 91 79 5 5 5 5 5 5 5 5 93 92 100 100 100 100
100 100 100 100 100 100 100 100 99 98 100 100 99 100 100 100 78 100 100 97 97 67 90 87 5 5 5 5 4 5 5 5 5 5 79 96 100 100
100 100 100 100 100 100 100 100 100 100 100 100 95 92 100 100 96 99 91 98 90 30 70 92 5 29 5 5 5 5 5 5 5 14 93 100 100 100
100 100 100 100 100 100 100 100 100 100 100 100 100 100 91 17 20 54 86 96 78 8 7 91 11 77 28 5 5 5 5 12 10 47 82 98 98 100
100 100 100 100 100 100 100 100 100 100 100 100 100 76 5 5 5 41 82 100 100 94 5 99 68 90 97 30 38 5 5 5 64 82 94 100 98 100
100 100 100 100 100 100 100 100 100 100 92 28 5 5 5 5 11 46 76 100 100 100 5 100 99 95 100 97 98 5 5 5 28 39 92 99 100 95
100 100 100 100 100 88 75 55 59 52 5 5 5 12 61 82 74 80 76 90 100 97 7 89 99 99 100 100 95 8 5 5 68 70 88 73 97 100
40 39 18 8 5 5 5 5 5 5 5 58 94 91 92 81 86 96 75 90 99 86 68 76 100 100 100 100 99 87 99 84 62 60 79 92 90 94
5 5 5 5 0 4 4 5 5 7 78 95 95 93 89 100 100 97 100 100 100 76 6 5 49 98 100 100 100 98 84 100 100 98 89 99 100 100
5 3 0 0 2 5 5 9 12 59 91 94 100 99 95 99 99 99 100 100 100 100 87 6 92 100 100 99 98 92 100 100 88 96 100 100 100 100
2 0 1 5 30 47 72 86 90 97 97 97 100 100 100 100 100 100 100 100 100 100 100 100 100 100 99 100 90 99 99 99 96 100 100 100 100 100
0 3 5 49 100 99 97 97 96 94 100 100 100 100 100 100 100 99 100 100 100 100 100 98 100 100 100 100 100 100 100 100 100 100 100 100 100 99
0 5 6 84 98 97 99 100 100 100 100 100 100 100 100 100 100 100 100 100 100 100 100 100 100 100 100 100 100 100 100 100 100 100 100 100 100 100
5 5 5 61 91 97 96 100 100 100 100 100 100 100 100 100 100 100 100 94 100 100 100 100 84 88 100 99 100 100 100 100 100 100 100 100 100 100
5 5 5 5 69 91 98 96 100 100 100 100 100 100 100 100 100 100 100 100 100 100 100 90 97 99 100 100 100 100 100 100 100 100 100 100 100 100
5 5 5 5 47 87 95 96 99 99 100 100 100 100 100 100 100 100 100 100 100 100 100 100 100 100 100 100 100 100 100 100 85 100 100 100 100 100

GFSNE_prec_cloud_075.txt.gz
Cloud_Cover
100 100 100 100 100 100 100 100 100 100 100 100 100 100 100 100 100 100 100 100 100 100 100 100 73 98 100 100 96 96 100 100 34 7 39 89 100 100
100 100 100 100 100 100 100 100 100 100 100 100 100 100 100 100 100 100 100 100 100 100 100 100 100 99 100 64 98 79 81 94 78 94 100 100 100 100
100 100 100 100 100 100 100 100 100 100 100 100 100 100 100 100 100 100 98 100 100 100 100 100 100 100 98 69 94 75 50 81 89 100 100 100 100 100
100 100 100 100 100 100 100 100 100 100 100 100 100 100 100 100 72 100 100 100 100 100 100 100 100 100 91 25 24 33 79 46 59 97 98 84 99 99
100 100 100 100 100 100 100 100 100 100 100 100 100 100 62 73 100 100 100 100 100 100 97 79 5 5 5 7 12 5 5 23 79 22 92 48 43 91
100 100 100 100 100 100 100 100 100 92 91 79 80 99 100 99 64 100 100 77 89 68 52 72 89 12 47 5 40 85 5 5 5 5 47 60 79 94
100 100 100 100 100 100 100 100 100 100 83 94 99 100 100 94 99 100 100 100 100 100 94 100 93 8 9 65 25 5 5 5 41 88 100 100 100 100
100 100 100 100 100 100 100 100 100 100 100 100 100 100 100 100 100 100 100 100 100 100 44 48 16 92 100 10 4 5 5 5 30 82 91 99 100 100
100 100 100 100 100 100 100 100 100 100 100 100 100 100 100 99 98 97 100 100 100 100 100 100 100 92 6 0 4 5 5 5 5 5 45 94 99 98
100 100 100 100 100 100 100 100 100 100 100 100 100 100 100 100 100 100 100 100 100 100 84 75 4 5 3 3 2 5 5 5 5 5 8 98 97 97
100 100 100 100 100 100 100 100 100 100 100 100 100 100 100 100 100 100 100 87 89 70 5 6 4 5 5 5 0 4 5 5 5 5 90 94 100 100
99 100 100 100 100 100 100 100 100 100 100 100 100 100 96 59 5 5 5 99 100 98 5 55 5 38 86 5 0 4 2 4 29 24 29 92 100 100
100 100 100 100 100 100 100 100 86 58 19 6 5 5 5 10 29 89 89 100 100 100 45 100 44 91 100 87 76 5 5 5 5 5 5 54 94 100
5 6 6 8 5 5 5 5 5 5 5 5 5 26 60 63 98 100 100 99 97 99 68 100 100 100 100 100 100 100 40 6 14 34 39 22 41 85
5 5 5 5 5 5 5 5 5 5 5 5 71 86 99 100 100 100 100 100 100 100 100 37 99 100 100 100 100 100 100 76 81 5 88 100 100 100
5 5 5 5 0 5 5 5 5 5 5 9 78 100 100 100 100 100 100 100 100 100 96 98 100 100 100 100 99 87 90 100 82 97 97 98 100 100
5 5 5 0 1 5 5 5 5 5 48 99 100 100 100 100 100 100 100 100 100 100 100 100 100 100 100 100 100 87 85 100 100 100 100 97 93 98
5 4 0 1 5 18 36 64 87 99 100 100 100 100 100 100 100 100 99 100 100 100 100 100 100 100 100 70 77 55 89 98 76 84 93 100 100 100
5 0 1 5 10 82 97 100 100 100 100 100 100 100 100 100 100 98 100 100 100 100 100 100 100 100 100 100 100 100 100 100 100 99 96 100 100 100
4 0 5 5 5 84 100 100 100 100 100 100 100 100 100 100 98 100 100 100 100 100 100 100 100 98 100 100 100 100 100 100 100 100 100 94 94 100
5 5 5 5 5 80 100 100 100 100 100 100 100 100 100 100 99 100 100 99 100 100 100 91 14 94 98 100 100 100 100 100 100 100 100 100 100 100
5 5 5 5 5 19 74 87 99 100 100 100 100 100 99 100 100 100 100 100 100 100 99 94 75 82 87 100 100 100 100 100 100 100 100 100 100 100
5 5 5 5 5 5 5 19 69 99 100 100 99 99 95 99 94 100 100 100 100 100 100 99 100 90 100 100 99 100 100 100 100 93 100 100 100 100

GFSNE_prec_cloud_078.txt.gz
Cloud_Cover
100 100 100 100 100 100 100 100 100 100 100 100 100 100 100 100 100 100 100 100 100 100 100 100 100 100 100 100 100 100 100 100 100 100 100 100 100 100
100 100 100 100 100 100 100 100 100 100 100 100 100 100 100 100 100 100 100 100 100 100 100 100 100 100 76 100 100 100 100 100 100 100 100 100 100 100
100 100 100 100 100 100 100 100 100 100 100 100 100 100 100 100 100 100 100 100 100 100 100 100 83 37 98 90 100 100 100 100 100 100 100 100 100 100
100 100 100 100 100 100 100 100 100 100 100 100 100 100 100 100 100 100 100 100 100 100 100 93 56 59 100 100 100 100 100 99 100 100 100 100 100 100
100 100 100 100 100 100 100 100 100 100 100 90 74 48 54 69 96 95 99 90 99 71 32 56 26 95 96 100 100 92 79 12 97 100 100 90 89 96
100 100 100 100 100 100 100 100 100 100 100 100 100 100 100 100 100 100 92 84 100 99 72 91 100 94 97 82 47 40 5 5 36 70 74 76 99 100
100 100 100 100 100 100 100 100 81 98 100 100 100 100 100 100 100 100 100 100 100 97 98 99 100 97 100 95 33 63 5 62 88 80 93 100 100 100
100 100 100 100 100 100 100 100 100 100 100 100 100 100 100 100 100 100 90 100 100 97 100 100 100 100 100 100 100 59 57 27 94 99 100 100 100 100
100 96 97 94 72 89 95 96 97 100 100 100 100 100 100 98 100 100 100 100 100 100 100 100 100 100 82 55 5 5 5 8 8 24 85 100 100 100
5 5 5 26 50 71 98 100 99 100 100 100 100 100 100 100 100 100 100 100 100 69 56 83 11 11 2 2 0 5 5 5 5 72 95 99 100 100
5 6 34 88 98 100 100 100 100 100 100 100 100 100 100 82 79 63 6 38 11 22 5 17 5 5 5 3 0 0 5 5 5 5 51 100 98 100
5 5 10 31 71 16 9 1 3 5 5 5 5 2 4 0 5 5 9 77 100 70 5 47 21 74 60 5 5 4 4 3 5 5 58 97 100 100
5 5 0 5 5 5 5 5 5 7 5 5 5 4 3 5 5 5 79 99 100 100 73 100 90 97 100 95 6 5 5 5 5 5 5 5 72 100
3 4 5 5 7 34 9 5 5 6 5 5 5 5 36 59 98 100 100 100 100 100 100 100 100 100 100 100 100 10 68 91 7 5 5 22 35 83
5 5 5 5 7 5 4 5 5 5 5 5 5 32 100 100 100 100 100 100 100 100 100 100 100 100 100 100 91 87 100 75 5 54 32 48 8 96
5 5 5 5 5 3 1 4 5 5 9 10 72 100 100 100 100 100 100 100 98 95 96 100 100 100 100 100 100 100 77 100 44 72 77 88 90 90
5 5 5 5 0 2 5 5 5 8 36 85 100 100 100 100 100 100 100 95 99 100 95 99 100 100 100 97 100 100 100 89 94 89 100 100 100 95
5 5 5 5 5 5 5 7 61 98 100 100 100 100 100 100 100 100 100 93 99 98 100 93 100 100 88 5 24 88 89 100 84 45 72 100 97 100
5 5 5 5 5 5 80 100 100 100 100 100 100 100 100 100 100 100 83 99 100 100 90 84 69 98 100 89 5 52 100 100 100 97 100 97 100 94
5 5 5 5 5 5 67 100 100 100 100 100 100 100 100 100 98 92 88 100 100 94 84 5 5 54 100 100 100 95 100 98 100 100 100 100 79 62
5 5 5 5 5 6 12 94 100 100 100 100 100 100 98 100 95 94 96 99 100 95 96 76 5 41 89 100 100 71 8 62 100 100 100 100 95 100
5 5 5 5 5 5 56 56 49 66 94 100 99 100 92 100 100 100 100 100 100 94 99 74 57 78 99 100 100 100 100 100 100 100 100 100 100 100
5 13 9 5 6 51 62 71 67 59 90 95 100 98 99 100 99 100 100 100 98 88 100 96 79 82 83 85 100 100 100 100 100 100 100 100 100 100

GFSNE_prec_cloud_081.txt.gz
Cloud_Cover
100 96 100 100 100 100 100 100 100 100 100 100 100 100 100 100 100 100 100 100 100 100 100 100 100 100 100 100 100 100 100 100 100 99 97 100 100 100
100 100 100 100 100 100 100 100 100 100 100 100 100 100 100 100 100 100 100 100 100 100 100 100 100 100 100 100 100 100 100 100 100 98 100 100 100 100
100 100 100 100 100 100 100 100 100 100 100 100 100 100 100 100 100 100 100 100 100 100 100 100 100 100 100 100 100 100 100 100 98 99 100 100 100 100
100 100 100 100 100 100 100 100 100 99 100 100 100 100 100 100 100 100 100 100 100 100 100 100 100 100 100 100 100 100 100 100 100 100 100 100 100 100
100 100 100 100 100 100 100 100 100 100 100 100 100 100 100 100 100 100 100 100 100 100 100 100 100 100 100 100 97 68 71 64 44 38 30 10 21 18
94 100 100 100 100 100 100 100 100 100 100 100 100 100 96 87 99 84 78 100 67 52 48 100 97 92 100 67 47 88 100 56 31 65 98 99 99 100
98 100 100 100 100 100 100 100 100 96 94 100 100 96 81 100 96 45 85 99 76 40 76 60 42 48 18 7 5 10 41 72 80 83 93 98 100 100
100 100 100 100 100 94 100 99 83 54 74 66 100 90 91 100 100 100 100 100 100 100 100 91 100 100 97 99 61 14 5 5 56 99 100 100 100 100
70 90 77 43 32 39 16 6 30 79 52 37 34 81 95 99 94 68 89 84 70 57 70 14 16 7 5 1 0 5 5 5 10 84 100 92 100 100
5 5 5 5 5 5 5 5 5 5 5 5 5 5 5 5 5 5 5 5 5 5 5 41 5 5 5 1 2 5 5 5 5 8 16 57 98 100
5 5 0 3 5 35 4 2 2 1 1 1 5 5 43 82 94 45 7 5 12 5 5 7 5 5 5 4 4 1 5 5 5 5 50 96 100 100
4 1 5 3 5 5 4 5 4 0 2 5 0 0 0 4 5 5 21 5 73 56 8 85 94 79 66 5 5 5 5 3 5 5 6 32 99 100
0 0 5 5 5 5 5 0 1 12 5 5 0 4 5 5 5 5 37 90 100 100 99 100 96 100 100 97 10 5 5 5 5 5 5 5 7 66
5 5 5 3 0 4 3 5 15 12 5 3 5 6 8 78 99 100 100 100 100 100 100 100 100 100 100 96 96 5 5 5 5 16 5 5 5 8
5 5 5 3 2 4 0 5 5 0 4 5 5 16 100 100 100 100 100 100 100 91 11 85 99 100 100 99 97 69 16 63 50 35 85 49 58 86
5 5 5 4 4 0 0 4 5 5 5 5 61 100 100 100 100 100 100 100 98 7 5 15 97 93 74 92 96 100 100 100 80 60 79 71 100 100
5 5 4 0 0 0 4 5 5 8 74 96 100 100 100 100 96 100 100 96 96 83 40 5 5 5 8 8 100 100 84 96 92 65 61 99 100 100
5 5 2 0 4 5 5 5 30 97 100 100 100 100 100 100 100 100 100 97 98 83 72 5 5 44 79 19 19 84 60 100 99 65 100 100 100 96
5 5 5 5 5 5 5 81 100 100 100 100 100 100 100 100 100 89 38 69 97 92 59 5 26 95 100 93 7 84 100 63 100 100 100 100 100 100
5 5 5 5 5 18 24 14 98 100 100 100 100 100 100 100 96 99 86 99 98 88 97 94 64 17 100 99 97 10 6 93 100 100 100 100 100 96
5 5 5 5 5 5 6 52 29 90 100 100 100 100 100 100 83 98 92 94 100 96 94 87 12 76 91 95 99 72 99 100 100 100 100 100 100 100
5 5 5 5 5 5 32 67 80 72 74 75 100 100 99 97 90 90 96 100 99 100 96 81 98 96 100 100 95 100 100 90 36 22 100 100 100 100
5 5 5 5 5 36 69 80 76 67 76 74 74 70 94 97 91 100 100 100 100 100 97 100 100 100 100 100 99 100 100 80 88 82 48 100 100 100

GFSNE_prec_cloud_084.txt.gz
Cloud_Cover
100 100 100 100 100 100 100 100 100 100 100 100 100 100 100 100 100 100 100 100 100 100 100 100 100 100 100 100 100 100 100 100 100 100 100 100 100 100
100 100 100 100 100 100 100 100 100 100 100 100 100 100 100 100 100 100 100 100 100 100 100 100 100 100 100 100 100 100 100 100 100 100 100 100 100 100
100 100 100 100 100 100 100 100 100 100 100 100 100 100 100 100 100 100 100 100 100 100 100 100 100 100 100 100 100 100 100 100 100 100 100 100 100 100
100 100 100 100 100 100 100 100 100 100 100 100 100 100 100 100 100 100 100 100 100 70 91 100 100 100 100 100 100 58 100 100 100 100 100 100 100 100
100 100 100 100 100 100 100 100 100 97 100 100 100 100 100 100 100 100 99 76 22 59 72 100 94 100 100 96 96 89 100 100 100 100 100 100 100 99
100 100 99 100 96 100 91 100 99 100 100 100 100 100 92 100 100 59 17 4 7 56 100 94 95 99 100 83 25 5 53 30 13 36 12 54 61 100
99 99 100 100 100 100 87 69 100 97 87 73 40 12 32 5 5 5 5 5 5 12 26 14 5 5 4 1 0 1 4 5 5 17 8 83 96 100
100 100 100 100 100 98 49 16 5 5 5 17 74 6 5 5 5 5 5 5 26 5 5 5 5 5 4 5 2 5 5 5 10 91 38 85 100 100
100 90 14 6 5 5 5 5 4 12 29 17 5 5 5 5 5 5 5 33 6 5 5 5 5 5 5 0 2 5 16 10 34 99 91 99 96 99
5 5 5 5 5 5 5 5 5 5 5 5 5 4 5 3 5 5 7 5 5 5 5 67 5 5 5 1 4 5 5 6 10 10 48 87 100 100
5 5 3 5 5 5 5 5 3 0 0 3 4 5 7 63 94 91 19 5 5 5 5 13 5 7 5 5 5 4 2 5 5 5 39 95 98 100
4 5 5 5 5 5 5 5 5 4 2 5 2 0 2 4 6 5 5 9 74 38 5 93 88 52 26 5 5 5 4 2 5 5 5 26 97 93
2 5 5 5 5 5 5 5 5 5 5 5 4 5 5 5 5 5 24 82 98 92 57 99 89 98 94 45 5 5 5 5 5 5 5 5 5 78
5 14 26 8 5 5 5 5 6 25 5 5 7 6 5 5 94 100 100 100 100 97 98 100 100 92 98 99 95 6 5 5 5 5 5 5 5 15
37 59 14 7 7 5 5 5 5 0 4 5 5 16 66 100 100 100 100 100 100 100 81 51 52 40 93 100 100 98 98 92 70 9 7 5 5 36
57 48 17 59 53 26 5 5 5 5 5 9 42 87 100 100 100 100 100 100 100 26 5 5 5 24 92 98 98 100 100 100 37 6 19 5 18 38
100 25 79 76 27 29 5 5 5 5 36 50 98 100 100 100 100 100 100 100 97 100 80 5 5 5 5 48 100 99 100 100 66 9 16 55 12 100
63 67 28 52 39 6 5 5 5 59 100 100 100 100 100 100 100 100 100 95 98 94 92 11 5 60 58 41 20 70 78 62 5 17 100 97 98 100
89 49 71 41 5 6 35 61 14 100 100 100 100 100 100 100 100 98 83 84 98 81 54 7 78 99 100 93 5 5 60 5 22 74 81 99 100 56
78 61 53 12 27 7 12 56 9 76 99 100 100 100 100 100 100 95 78 99 99 77 78 72 72 88 100 99 99 9 34 40 97 100 80 100 80 90
63 44 10 13 12 5 6 46 71 53 70 96 100 100 100 100 100 97 92 95 99 93 100 85 8 89 100 100 100 80 8 8 100 99 100 100 100 100
36 30 5 5 5 5 5 40 71 72 70 76 57 18 60 89 98 100 100 100 94 100 100 96 86 100 100 100 100 99 47 64 51 9 38 100 100 100
73 20 47 5 5 6 56 70 73 62 66 66 70 75 83 100 98 100 100 100 100 100 96 99 93 100 100 100 99 94 99 79 61 82 43 100 100 100

GFSNE_prec_cloud_087.txt.gz
Cloud_Cover
100 100 100 100 100 100 100 100 100 100 100 100 100 100 100 100 54 79 98 100 100 100 100 100 100 100 100 100 100 100 100 100 100 100 100 100 100 100
87 100 100 100 100 100 100 100 100 100 100 100 100 100 98 100 100 100 100 100 100 100 100 100 100 100 100 100 100 100 100 100 100 100 100 100 100 100
91 100 100 100 100 100 56 99 96 100 97 99 100 100 100 100 100 100 100 100 100 100 100 100 71 79 56 58 97 100 100 85 100 100 100 100 100 100
99 100 100 100 100 100 100 100 100 100 100 100 100 99 100 100 100 100 100 100 100 64 14 18 5 5 17 40 31 11 57 99 100 100 100 97 100 100
100 100 100 100 100 100 100 94 100 100 100 100 87 47 100 100 100 100 96 61 67 19 2 0 0 1 5 5 5 5 10 13 55 42 89 88 98 98
100 100 100 100 100 100 79 96 64 99 80 94 100 88 62 62 25 40 15 1 0 0 0 0 4 0 4 5 5 5 5 5 5 5 5 11 63 72
100 100 100 100 100 76 61 63 36 71 34 19 24 6 14 5 5 5 1 5 3 5 5 5 5 5 4 3 0 0 5 5 5 6 24 73 86 88
100 100 100 100 100 73 9 11 5 5 5 16 97 6 5 5 5 5 6 11 6 5 5 5 5 5 4 5 2 5 5 5 6 19 34 82 100 100
100 100 100 100 19 5 5 5 4 16 5 5 5 5 5 5 5 5 6 46 22 5 5 5 5 5 5 0 1 5 8 22 15 19 6 13 42 77
100 100 100 29 5 5 5 5 5 5 5 5 5 5 5 5 5 5 5 5 5 5 5 71 5 5 5 3 5 5 11 5 5 5 5 23 97 96
100 97 17 5 26 5 0 5 5 5 5 5 5 5 5 9 53 11 51 47 5 5 5 8 6 6 5 5 5 4 5 1 5 5 31 91 100 100
9 34 6 42 5 5 5 5 6 10 5 9 5 5 5 6 14 5 5 38 69 42 5 44 34 20 31 5 5 5 2 0 5 5 8 39 98 100
12 5 23 5 4 5 5 28 38 9 7 5 5 5 5 5 5 14 27 82 100 100 79 100 100 100 96 65 9 6 5 5 5 5 5 6 10 78
37 7 2 5 5 38 70 59 32 12 5 5 8 10 9 14 16 96 100 100 100 100 98 100 100 100 100 100 98 8 10 51 5 5 5 5 5 20
3 1 5 12 56 75 92 59 14 24 12 6 28 49 52 98 100 100 100 100 100 100 100 100 97 71 99 100 100 95 100 55 88 29 44 6 78 100
24 64 100 100 100 100 55 58 62 10 5 9 49 43 100 100 100 100 100 100 100 82 5 23 30 76 76 84 99 95 88 98 12 77 13 9 17 81
100 100 100 100 100 77 55 61 8 5 13 82 89 100 100 100 100 100 100 100 98 88 81 5 5 10 15 39 100 91 76 84 41 5 43 46 5 7
100 100 100 100 87 63 32 46 5 5 40 100 100 100 100 100 100 100 100 100 100 97 74 32 59 69 37 5 21 74 61 72 5 5 6 99 94 31
100 100 100 81 58 7 5 64 39 5 14 100 100 100 100 100 98 100 98 100 97 73 31 9 93 100 100 99 5 6 5 32 5 14 39 84 86 72
84 77 50 39 16 5 8 57 57 58 71 35 80 100 100 100 100 100 100 98 95 82 77 52 84 92 100 100 100 92 6 52 6 13 67 46 79 92
78 52 8 8 7 5 6 10 39 56 54 61 54 78 99 100 100 100 100 95 98 99 96 46 6 67 99 100 100 72 100 9 81 10 9 94 99 77
15 33 38 41 98 92 62 19 49 64 66 72 59 70 64 68 100 99 99 100 100 100 100 57 5 11 89 100 100 100 99 96 6 5 24 60 95 100
100 93 100 100 98 81 54 57 57 6 58 57 66 66 77 100 94 97 100 100 100 100 100 97 77 78 100 100 99 100 100 79 6 23 6 5 27 98

GFSNE_prec_cloud_090.txt.gz
Cloud_Cover
100 100 100 100 100 100 100 100 100 100 100 100 100 62 96 100 100 90 99 98 98 100 100 100 100 100 100 100 100 100 100 100 100 100 100 100 100 100
100 100 100 100 100 100 100 100 100 100 100 100 90 100 99 79 46 84 87 100 95 100 100 100 100 100 100 100 98 78 49 80 97 8 80 100 100 100
100 100 100 100 100 100 100 100 100 100 100 100 100 100 99 98 100 98 100 100 100 100 100 100 100 96 24 5 11 6 5 5 5 5 7 100 100 100
100 100 100 100 100 100 100 100 100 100 94 100 100 100 100 100 99 100 98 100 100 100 100 96 7 5 5 4 5 5 5 4 5 8 94 8 6 6
100 100 100 100 100 100 100 100 100 100 100 100 99 43 50 75 83 93 100 96 83 40 24 4 0 1 4 5 5 5 4 5 5 5 5 5 5 5
100 100 100 100 100 100 100 100 100 85 78 36 28 95 93 70 34 13 6 4 0 0 0 0 2 3 1 0 5 5 5 5 5 5 3 5 63 97
100 100 100 100 100 100 100 100 91 65 43 10 19 6 14 5 5 5 5 5 3 5 5 5 5 5 4 4 2 1 3 5 5 5 9 46 95 93
100 100 100 100 100 100 100 100 96 36 6 14 94 6 5 6 40 5 5 5 5 5 5 5 5 5 4 5 0 5 5 5 10 92 100 100 100 94
100 100 100 100 100 100 100 100 100 16 4 5 5 5 15 28 29 5 5 30 5 5 5 5 5 5 4 0 3 5 7 48 47 5 5 14 98 99
100 100 100 100 100 100 100 100 18 5 5 4 5 5 35 19 5 5 5 5 5 5 5 74 5 5 5 5 5 7 84 8 6 5 5 19 81 98
100 100 100 100 100 92 48 12 15 5 5 5 5 5 6 32 17 5 37 51 9 5 5 7 5 10 5 5 5 4 9 5 5 5 5 21 26 99
100 100 100 100 83 25 42 17 5 5 3 5 5 5 31 45 12 5 5 40 73 52 10 75 39 12 32 5 5 5 5 0 5 5 6 52 85 98
100 100 76 68 5 17 5 5 3 5 7 5 5 17 58 6 5 8 24 72 100 100 79 97 83 84 90 63 5 5 5 5 4 5 5 5 15 80
55 22 41 20 5 5 5 5 5 35 42 14 8 66 21 15 31 79 99 100 100 90 97 100 97 91 100 100 89 8 5 5 5 5 5 5 5 5
26 5 68 96 42 24 97 90 97 99 58 39 57 58 37 75 100 100 100 100 100 100 99 100 100 100 100 100 100 89 90 10 6 29 13 7 5 5
5 5 5 12 100 100 100 100 100 95 26 9 59 20 77 100 100 100 100 100 97 55 5 29 62 89 99 89 88 91 87 92 18 12 5 5 5 6
5 5 50 100 100 100 100 100 85 42 54 60 48 96 100 100 100 100 100 100 99 93 67 6 5 14 71 100 92 60 58 35 5 5 36 62 5 5
5 30 97 100 100 100 99 59 49 8 26 6 21 84 100 100 100 100 100 100 100 75 78 59 67 66 47 49 36 68 56 75 5 5 10 87 47 5
39 69 90 97 97 73 60 57 55 14 28 51 46 58 100 100 100 100 100 100 100 92 27 58 94 100 100 99 100 23 79 13 44 5 5 23 86 6
10 10 16 29 60 88 74 56 58 60 69 66 83 73 52 76 99 100 100 100 100 84 45 69 97 97 99 99 100 90 5 11 7 68 45 12 6 23
64 100 100 100 100 100 40 5 16 69 68 63 80 89 80 96 100 100 100 96 98 97 72 16 5 80 94 100 99 61 23 14 92 94 83 98 100 95
100 100 100 100 100 100 100 51 53 61 63 78 72 69 67 94 88 96 100 100 100 100 88 45 5 68 98 100 95 98 81 95 61 84 78 57 97 98
100 100 100 100 100 100 100 94 32 22 32 57 60 56 70 92 53 87 100 100 100 100 100 99 87 95 100 100 100 99 100 86 100 100 96 65 5 6

GFSNE_prec_cloud_093.txt.gz
Cloud_Cover
100 100 100 100 100 100 100 100 100 100 100 100 100 100 100 100 100 100 95 100 99 100 99 37 81 94 100 78 94 100 100 92 37 26 7 6 41 58
100 100 100 100 100 100 100 100 100 100 100 100 100 100 100 100 95 28 57 100 100 89 100 100 100 100 100 100 94 25 31 11 5 5 6 7 2 98
100 100 100 100 100 100 100 100 100 100 100 100 100 100 100 69 71 69 100 99 92 94 92 100 100 100 100 34 5 5 5 5 5 5 2 13 60 100
100 100 100 100 100 100 100 100 100 100 100 100 100 100 100 69 81 96 89 100 44 100 100 70 97 31 5 3 5 5 5 5 0 2 5 9 50 41
100 100 100 100 100 100 98 100 100 100 100 100 100 100 100 78 68 96 98 100 91 49 26 5 5 0 2 5 5 5 4 5 5 5 5 5 5 7
100 100 100 100 100 100 100 100 100 100 100 100 100 97 99 93 88 37 5 5 5 5 5 5 1 3 4 4 2 5 4 5 5 5 5 5 17 42
100 100 100 100 100 100 100 100 100 100 100 100 78 93 62 19 4 2 1 3 5 6 5 5 5 0 0 0 0 0 0 5 5 5 5 8 25 100
100 100 100 100 100 100 100 100 100 100 100 99 100 100 8 5 5 3 4 5 36 30 5 5 2 4 0 0 0 5 5 5 5 56 100 53 14 5
100 100 100 100 100 100 100 100 100 100 100 100 100 91 5 5 5 5 4 15 20 9 5 5 0 0 0 0 2 5 5 20 94 35 6 5 7 17
100 100 100 100 100 100 100 100 100 100 100 100 52 29 4 5 4 5 6 41 69 6 5 5 5 2 1 4 4 20 90 95 6 5 5 5 8 12
100 100 100 100 100 100 100 100 100 100 23 8 5 5 6 18 5 5 25 63 21 5 5 5 5 5 5 4 0 5 28 12 5 5 29 6 23 75
100 100 100 100 100 100 100 100 100 60 14 4 4 8 6 19 32 21 24 32 6 5 13 49 53 39 5 5 0 0 1 0 5 5 38 35 47 36
100 100 100 100 100 100 94 66 51 18 5 8 74 57 50 72 26 36 62 18 72 91 68 96 93 79 79 73 5 5 5 4 5 5 38 49 6 42
100 100 100 100 100 51 42 14 5 5 18 100 100 100 38 27 38 56 23 84 90 96 89 96 98 97 100 99 90 12 6 6 6 5 5 5 5 5
100 100 100 61 35 5 5 5 75 99 73 48 22 5 24 18 24 83 100 100 100 100 97 100 99 100 100 100 92 67 78 5 5 18 5 6 5 5
97 55 25 5 5 5 32 95 31 5 5 29 9 16 8 75 100 100 100 100 100 77 5 5 5 30 91 90 95 92 62 71 7 5 72 73 26 14
5 5 5 5 5 5 34 74 99 80 76 81 53 9 74 100 100 100 100 98 100 99 85 63 5 19 77 79 90 59 66 72 38 70 73 73 6 5
5 5 5 5 5 5 5 6 5 13 76 68 24 32 61 85 99 99 100 99 100 100 95 96 90 74 64 34 5 5 20 80 21 68 75 94 63 5
12 5 5 5 5 5 5 43 75 91 65 8 5 21 60 67 77 96 100 100 98 100 94 98 96 100 100 97 63 67 70 83 78 46 72 89 94 7
14 11 5 5 5 8 66 96 88 100 92 26 60 67 76 78 99 100 99 99 100 100 97 93 93 98 98 99 98 98 73 8 10 67 81 83 72 88
77 65 86 88 77 98 100 63 18 38 52 98 86 99 87 92 93 98 97 100 96 100 99 40 25 13 74 100 100 31 20 18 56 82 92 100 100 80
100 91 78 83 54 68 62 24 90 100 100 100 95 90 58 60 86 90 95 99 100 100 98 55 50 93 98 100 100 92 7 5 8 100 100 100 98 100
100 100 87 88 99 99 72 60 87 98 44 59 74 72 38 46 21 56 70 80 100 100 96 87 75 84 99 100 99 100 100 77 100 57 96 100 95 85

GFSNE_prec_cloud_096.txt.gz
Cloud_Cover
100 100 100 100 100 100 100 100 100 100 100 100 100 100 100 100 72 64 100 100 100 100 98 100 100 100 100 100 100 100 100 100 100 56 42 5 7 47
100 100 100 100 100 100 100 100 100 100 100 100 100 100 100 100 100 100 100 100 100 100 100 89 100 100 89 100 100 100 96 9 5 6 5 5 5 13
100 100 100 100 100 100 100 100 100 100 100 100 100 100 100 100 100 100 100 100 100 91 98 88 88 60 33 100 39 10 5 5 5 5 6 27 46 93
100 100 100 100 100 100 100 100 100 100 100 100 100 100 100 100 100 100 100 100 71 81 65 100 81 8 5 5 1 3 5 5 5 4 5 26 33 90
100 100 100 100 100 100 100 100 100 100 100 100 100 100 100 100 100 100 100 100 100 76 72 5 5 2 5 2 5 0 5 5 5 5 5 5 5 5
100 100 100 98 99 100 100 100 100 100 100 100 100 100 100 100 100 100 100 100 100 86 19 5 0 4 5 2 3 5 4 5 5 5 5 5 9 16
71 98 100 100 100 100 92 100 100 100 100 100 100 100 100 100 100 100 100 100 45 15 5 4 0 5 5 5 5 0 0 5 5 5 5 5 4 14
100 100 100 100 100 100 100 100 100 100 100 100 100 100 100 100 100 100 100 51 15 5 5 5 5 5 9 5 3 1 5 5 5 5 2 5 6 5
100 100 100 100 100 100 100 100 100 100 100 100 100 100 100 100 100 100 62 13 5 23 51 6 8 5 5 5 0 5 4 5 6 5 6 6 5 5
100 100 100 100 100 100 100 100 100 100 99 100 100 100 100 100 94 35 5 17 64 99 50 10 5 5 5 0 0 5 5 14 19 13 5 5 5 5
100 100 100 100 100 100 100 100 100 100 100 100 100 100 100 85 27 5 86 100 100 96 22 5 5 5 5 5 2 5 5 19 9 5 5 5 5 8
100 100 100 100 100 100 100 100 100 100 100 100 100 82 21 20 25 90 100 85 71 54 44 52 67 38 29 5 5 5 5 5 5 5 5 5 5 5
100 100 100 100 100 100 100 100 100 100 100 100 52 5 10 97 92 34 13 54 97 91 98 94 100 100 96 76 5 5 5 5 5 5 5 5 5 8
100 100 100 100 100 100 100 100 100 98 16 5 5 9 71 40 88 80 84 69 100 97 95 100 98 98 100 100 75 19 46 17 13 6 13 5 5 5
100 100 100 100 100 100 100 100 76 7 5 5 5 5 60 100 42 48 39 36 76 71 98 100 96 100 100 100 97 82 88 36 21 42 26 62 57 60
100 100 100 100 100 100 97 18 5 5 5 5 6 76 75 94 87 100 100 100 100 100 97 9 33 78 82 98 100 100 83 90 34 56 64 99 72 76
100 100 100 100 91 13 5 5 5 5 5 2 5 36 85 88 93 100 100 100 100 100 100 100 100 99 96 95 93 55 22 43 67 58 95 77 95 72
100 100 95 10 11 12 5 5 5 5 4 5 5 66 97 89 87 100 100 100 100 100 100 100 100 100 86 56 22 47 19 80 66 98 100 100 90 98
100 75 7 41 21 5 40 6 5 5 5 5 5 58 81 83 97 100 97 100 100 97 99 100 100 100 98 53 5 6 65 70 83 86 71 96 76 64
81 43 50 8 43 49 20 9 44 5 5 42 20 38 79 81 83 90 93 94 88 82 89 95 100 99 100 74 82 6 5 22 42 65 56 68 81 79
94 84 39 36 54 70 83 76 63 50 25 11 21 48 60 100 64 69 73 86 85 96 83 44 76 92 76 97 99 26 5 71 97 96 78 96 98 88
78 77 62 67 63 80 81 77 73 57 69 90 87 64 42 56 29 67 42 95 58 78 66 52 65 98 99 100 99 87 83 53 29 82 99 89 88 98
99 83 54 83 100 100 100 87 79 71 73 85 89 83 82 87 83 100 99 100 92 86 73 75 82 98 100 100 98 100 100 81 68 68 6 44 17 82

GFSNE_prec_cloud_099.txt.gz
Cloud_Cover
100 100 100 100 100 100 100 100 100 100 100 100 100 100 100 100 100 100 100 100 100 100 100 100 100 100 99 100 100 100 22 100 100 100 70 12 5 5
100 100 100 100 100 100 100 100 100 100 100 100 100 100 100 93 77 88 69 100 100 100 100 100 100 100 94 100 52 11 99 100 82 15 5 4 4 0
100 100 100 100 100 100 100 100 100 100 100 100 100 100 76 100 84 100 100 100 100 100 100 100 100 100 98 17 5 5 24 5 5 5 5 3 0 0
100 100 100 100 100 100 100 100 100 100 100 100 100 100 100 99 100 90 100 100 100 100 100 100 100 100 5 5 5 3 1 2 5 5 5 5 1 11
100 100 100 100 100 100 100 100 100 100 91 100 100 100 100 100 100 100 100 100 100 100 100 100 58 8 5 5 4 5 5 5 5 5 5 4 5 5
100 100 100 100 100 100 97 83 66 90 100 98 100 100 100 100 100 100 100 100 100 100 100 100 14 5 5 5 19 48 37 5 5 5 5 6 8 10
100 83 98 100 100 100 83 69 80 99 100 100 100 100 100 100 100 100 100 100 100 100 100 71 5 5 11 88 100 100 32 5 5 5 5 5 5 27
100 100 100 100 100 100 87 99 97 100 97 100 99 100 100 100 100 100 100 100 100 100 25 5 47 100 100 100 100 55 5 5 5 5 5 11 5 5
100 100 100 100 100 100 100 100 100 99 100 100 100 100 100 100 100 100 94 54 99 48 9 99 100 100 83 21 5 5 5 5 5 5 5 5 4 5
100 100 100 100 100 100 100 100 100 100 100 100 100 100 100 100 100 76 52 100 59 10 91 100 90 73 10 5 5 5 5 6 21 15 5 6 5 5
100 100 100 100 88 100 100 100 100 100 100 100 100 100 100 100 90 68 85 6 78 100 94 19 20 5 5 5 5 5 5 5 8 19 6 5 5 5
100 100 84 73 100 100 100 100 100 100 100 100 100 100 100 99 61 92 5 70 64 90 26 7 30 16 7 5 5 5 5 5 5 5 5 5 5 5
100 100 98 100 100 100 100 100 100 100 100 100 100 100 100 90 28 5 5 59 100 98 33 7 89 100 91 76 5 5 5 5 5 4 5 5 5 38
100 100 100 100 100 100 100 100 100 100 100 100 100 100 90 6 5 14 39 34 85 82 92 89 76 95 100 100 77 5 5 5 4 5 5 5 10 20
100 100 100 100 100 100 100 100 100 100 100 100 100 44 5 7 69 60 6 6 11 28 73 92 93 100 100 100 100 95 96 5 5 5 5 93 93 6
100 100 100 100 100 100 100 100 100 100 100 91 5 5 6 99 24 88 100 100 100 100 98 100 37 78 100 100 100 98 100 77 5 5 26 100 100 71
100 100 100 100 100 100 100 100 100 100 46 5 5 5 5 6 86 100 100 100 100 100 99 99 100 97 100 100 100 93 76 30 36 87 100 100 97 33
100 100 100 100 100 100 100 100 100 60 5 5 5 22 33 5 21 79 100 100 100 100 100 100 100 99 100 59 15 85 79 52 5 49 44 88 20 5
100 100 100 100 100 100 100 97 31 5 5 6 44 65 41 5 67 6 11 7 85 84 60 94 100 100 100 98 5 4 30 5 88 29 5 21 84 5
100 100 100 100 100 100 85 14 5 5 5 10 25 77 74 24 25 39 27 31 62 20 37 20 57 77 100 66 49 6 2 5 5 9 49 22 18 33
100 100 100 100 100 100 96 18 53 16 64 100 58 70 85 58 68 69 55 70 58 43 33 57 80 94 100 88 92 12 5 5 14 91 99 97 98 85
100 100 100 100 100 100 100 70 57 81 100 100 100 79 78 100 75 72 65 79 73 85 98 100 100 99 50 89 99 84 40 12 20 17 20 70 97 100
100 100 100 100 100 100 100 100 99 100 100 100 100 100 100 100 73 94 77 96 100 100 99 100 100 97 7 56 98 100 100 55 5 25 5 5 5 5

GFSNE_prec_cloud_102.txt.gz
Cloud_Cover
100 100 100 100 100 100 100 100 100 100 100 100 100 100 100 100 100 100 100 100 95 100 100 100 100 100 100 100 100 100 77 40 78 79 99 8 5 10
100 100 100 100 100 100 100 100 100 100 100 100 100 100 100 100 100 100 100 100 43 100 100 100 100 100 100 100 100 100 97 22 29 76 26 5 4 1
100 100 100 100 100 100 100 100 100 100 100 100 100 100 100 100 100 100 100 100 100 100 100 100 100 100 100 100 100 100 100 5 5 6 5 5 5 3
100 100 100 100 100 98 100 100 100 100 100 100 100 100 100 100 100 100 100 100 100 100 100 100 100 100 100 100 100 100 5 5 50 76 5 4 4 6
100 100 100 100 100 100 100 100 100 100 100 100 100 100 100 100 97 97 100 100 100 100 100 100 100 100 94 86 97 5 5 37 95 12 5 5 5 5
100 100 100 100 100 100 100 100 100 100 100 100 100 65 76 100 100 100 100 100 100 100 100 100 100 100 18 7 32 5 49 100 39 5 5 5 5 5
100 100 100 100 100 100 100 100 100 100 97 72 90 99 100 100 100 100 100 100 100 100 100 100 72 17 10 5 28 96 59 8 5 5 5 5 5 10
40 100 100 100 92 100 97 100 100 100 100 99 96 100 100 98 100 100 100 100 100 100 100 10 7 5 16 25 10 5 5 5 5 5 5 3 5 5
100 100 100 100 100 100 100 100 100 100 100 100 100 99 98 100 100 100 100 100 100 96 13 98 19 5 5 5 5 5 5 4 5 5 6 5 5 5
100 100 100 100 100 100 100 100 100 54 17 100 97 100 100 100 100 100 100 100 100 94 83 31 5 6 22 5 5 5 1 5 6 33 7 9 21 6
100 100 100 100 100 100 100 65 24 96 100 100 100 100 100 100 100 100 100 100 97 99 9 5 42 10 5 5 3 5 5 4 10 20 17 5 5 7
100 100 100 100 100 100 63 51 100 100 100 100 100 100 100 100 100 100 82 100 44 5 7 5 5 13 32 5 5 0 2 4 5 5 5 5 5 5
100 100 100 100 91 81 100 96 100 100 100 100 100 100 100 100 99 100 100 63 7 11 9 24 55 85 52 23 6 6 5 5 5 5 5 5 5 28
100 100 95 62 85 100 100 100 100 100 100 100 100 100 100 99 100 99 53 6 14 53 46 38 43 73 94 71 18 6 5 5 5 5 5 5 5 6
100 83 33 62 100 100 100 100 100 100 100 100 100 100 99 100 100 78 15 5 6 6 66 100 80 96 88 75 57 58 93 19 5 7 6 6 6 51
100 100 100 100 100 100 100 100 100 100 100 100 100 100 100 100 89 18 70 100 100 100 99 100 100 94 98 100 100 100 100 84 18 5 6 90 100 100
100 100 100 100 100 100 100 100 100 100 100 100 100 100 100 90 9 33 98 100 100 100 100 99 100 99 98 98 96 100 100 94 7 5 38 92 30 5
100 100 100 100 100 100 100 100 100 100 100 100 100 100 58 22 32 54 17 79 87 97 91 91 91 98 91 39 26 96 100 100 34 5 6 29 5 5
100 100 100 100 100 100 100 100 100 100 100 100 100 39 14 44 37 69 62 63 65 52 29 45 77 91 96 87 5 5 46 87 87 90 22 8 6 5
100 100 100 100 100 100 100 100 100 100 100 100 96 95 55 59 91 90 94 96 66 64 60 67 82 68 78 63 98 24 5 14 54 6 5 5 5 6
100 100 100 100 100 100 100 100 100 100 100 100 100 90 99 99 89 82 100 100 100 100 74 10 11 38 85 95 96 73 5 5 5 43 61 98 95 68
100 100 100 100 100 100 100 100 100 100 100 100 100 99 100 100 100 100 100 100 100 100 98 50 15 37 98 60 100 38 5 5 5 5 14 70 93 95
100 100 100 100 100 100 100 100 100 100 100 100 100 100 100 100 100 100 100 100 100 100 100 100 96 96 73 64 100 99 93 38 5 5 5 5 5 12

GFSNE_prec_cloud_105.txt.gz
Cloud_Cover
100 100 100 100 100 100 100 100 100 100 100 100 100 100 100 100 100 100 100 100 100 100 100 100 100 100 100 100 100 100 100 100 100 58 100 37 5 5
100 100 100 100 100 100 100 100 100 100 100 100 100 100 100 100 94 99 100 100 100 100 100 100 100 100 100 100 100 100 100 100 50 7 16 5 5 5
100 100 100 100 100 100 100 100 100 100 100 100 100 91 100 100 100 100 98 100 100 100 100 100 100 100 100 100 100 100 100 95 21 5 5 5 49 50
100 100 100 100 100 100 100 100 100 100 100 100 100 98 100 98 100 100 100 100 100 100 100 100 100 100 100 100 100 100 100 97 6 54 9 95 8 4
100 100 100 100 100 100 100 100 100 100 100 100 100 100 100 100 100 100 100 100 99 96 97 100 100 100 100 100 100 100 89 29 88 5 5 5 4 4
100 100 100 100 100 100 100 100 100 100 100 100 100 100 100 100 100 100 100 100 100 82 100 100 100 100 100 100 98 67 46 34 5 5 5 5 5 5
100 100 100 100 100 100 100 100 100 100 100 100 100 100 72 42 43 82 99 100 100 100 100 100 100 100 100 70 97 59 5 5 5 5 5 4 5 5
99 64 93 100 100 100 100 100 100 100 100 100 99 98 68 83 100 100 97 73 100 100 100 100 100 100 100 95 40 5 5 4 5 5 5 5 6 5
100 98 100 100 100 100 100 100 100 100 100 100 99 42 28 18 31 100 100 100 100 100 100 100 100 92 64 39 5 5 1 0 5 5 5 14 5 5
100 100 100 100 100 100 100 100 100 100 100 100 91 5 4 85 100 100 100 100 100 100 100 100 73 79 33 5 4 1 5 3 6 14 55 16 8 18
100 100 100 100 100 100 100 100 100 100 100 97 47 36 100 100 100 100 100 100 100 100 100 90 90 37 5 5 0 1 5 5 15 92 45 20 5 6
100 100 100 100 100 100 100 100 100 100 98 100 100 88 93 99 100 100 100 100 100 100 100 86 44 15 10 5 5 5 5 5 5 5 5 5 37 6
100 100 100 100 100 100 100 100 88 85 98 100 100 100 100 100 100 100 100 100 100 100 98 67 54 6 53 22 7 8 5 5 5 5 5 5 5 46
100 100 100 100 100 100 100 100 100 100 100 100 100 100 100 100 100 100 100 100 100 99 96 54 54 37 67 76 55 25 6 5 12 5 5 5 5 5
100 100 100 100 100 100 100 100 100 100 95 100 100 100 100 100 100 100 100 100 100 91 60 59 61 56 76 91 73 33 89 16 6 39 19 8 5 5
100 100 100 100 100 100 100 100 100 100 100 100 100 100 100 100 100 100 100 100 100 60 98 100 94 100 100 100 100 99 100 84 60 38 10 14 6 5
99 100 100 100 100 100 100 100 100 100 100 100 100 100 100 100 100 100 100 100 99 100 100 100 100 100 96 91 89 69 98 100 100 54 43 17 7 5
100 100 100 99 100 100 100 100 100 100 100 100 100 100 100 100 100 100 100 100 92 94 98 94 98 99 84 24 28 57 100 100 93 46 91 100 55 5
100 100 100 100 100 100 100 100 100 100 100 100 100 100 100 100 100 100 100 89 94 72 63 67 89 98 100 96 35 5 46 82 76 61 6 13 5 5
100 100 100 100 100 100 100 100 100 100 100 100 100 100 100 100 100 100 100 90 98 80 77 98 100 100 100 100 100 27 38 50 55 100 26 5 5 5
100 100 100 100 100 100 100 100 100 100 100 100 100 100 100 100 100 100 100 100 100 100 100 86 100 100 100 100 100 90 7 61 92 100 59 73 86 32
100 100 100 100 100 100 100 100 100 100 100 100 100 100 100 100 100 100 100 100 100 100 100 93 98 100 100 100 100 100 77 16 77 98 17 89 96 99
100 100 100 100 100 100 100 100 100 100 100 100 100 100 100 100 100 100 100 100 100 100 100 100 100 100 100 100 100 100 100 84 100 96 6 5 5 50

GFSNE_prec_cloud_108.txt.gz
Cloud_Cover
100 100 100 100 100 100 100 100 100 100 100 100 100 100 100 100 100 100 90 100 100 100 100 100 100 100 100 100 100 100 100 100 100 100 100 100 40 25
100 100 100 100 100 100 100 100 100 100 100 100 100 100 100 100 100 100 100 97 100 100 100 100 100 100 100 100 100 100 100 100 100 100 100 65 25 13
100 100 100 100 100 100 100 100 100 100 100 100 100 100 100 100 100 100 100 100 100 100 100 100 100 95 100 100 100 100 100 100 100 100 49 31 5 5
100 100 100 100 100 100 100 100 100 100 100 100 100 100 100 100 100 100 100 100 100 100 100 100 31 100 100 100 100 100 100 100 100 74 7 5 5 0
100 100 100 100 100 100 100 100 100 100 100 100 100 100 100 100 100 100 100 100 100 100 95 72 100 100 100 100 100 100 100 100 88 16 5 0 0 3
100 99 100 100 100 100 100 100 100 100 100 100 100 100 100 100 100 100 100 100 100 61 10 100 100 100 100 100 100 100 100 66 5 5 3 1 1 4
100 100 100 100 100 100 100 100 100 100 100 100 100 100 100 100 100 100 100 100 29 69 100 95 99 100 100 100 100 100 61 5 5 5 5 5 5 5
100 100 100 100 100 100 100 100 100 100 100 100 100 100 100 100 100 96 59 35 77 47 100 100 100 100 100 100 100 97 12 5 5 5 5 13 5 5
100 100 100 92 100 100 100 100 100 100 100 100 100 100 100 100 100 47 44 18 8 84 100 100 100 100 100 100 100 67 5 5 5 5 6 6 12 5
58 80 80 100 100 100 100 100 100 100 100 100 100 100 100 100 64 39 32 52 100 100 100 100 100 100 100 100 94 5 5 3 4 9 5 9 14 5
100 100 100 100 100 100 100 100 100 100 100 100 100 100 100 74 23 70 97 100 82 100 100 100 100 100 100 99 20 5 2 4 15 80 69 16 29 28
47 94 98 100 100 100 100 100 100 100 100 100 100 100 97 100 98 100 100 100 100 100 100 100 100 100 100 61 6 5 5 5 5 26 34 35 17 19
40 80 100 100 100 100 100 100 100 100 100 100 100 100 100 100 100 100 100 100 100 100 100 100 100 100 97 47 7 10 5 5 5 5 5 5 5 15
82 99 100 100 100 100 100 100 100 100 100 100 94 95 100 100 100 100 100 100 100 100 100 100 100 100 82 81 32 6 7 9 11 5 5 5 5 5
99 100 82 100 100 100 100 100 100 92 100 98 100 100 100 100 100 100 100 100 100 100 100 100 100 100 65 72 70 69 6 6 18 54 22 8 6 5
100 100 87 94 97 100 100 100 100 100 100 100 100 100 100 100 100 100 100 100 100 100 100 100 100 100 83 99 89 74 77 57 60 66 67 15 6 5
100 99 91 100 95 97 100 100 100 100 100 100 100 100 100 100 100 100 100 100 100 100 100 100 100 100 83 80 80 43 40 69 100 90 58 62 12 5
100 96 75 100 100 98 100 100 100 100 100 100 100 100 100 100 100 100 100 100 100 100 100 100 100 100 100 87 78 73 76 94 100 86 96 95 50 5
100 90 94 100 100 100 100 100 100 100 100 100 100 100 100 100 100 100 100 100 100 100 100 100 100 100 100 100 100 43 70 100 100 100 100 97 100 24
100 94 93 91 87 94 99 100 98 100 100 100 100 100 100 100 100 100 100 100 100 100 100 100 100 100 100 100 100 85 57 100 100 100 100 100 96 61
100 100 100 91 94 98 99 100 100 99 100 100 100 100 100 100 100 100 100 100 100 100 100 100 100 100 100 100 100 100 99 100 100 100 100 100 99 87
100 100 100 100 85 91 100 100 100 100 100 100 100 100 100 100 100 100 100 100 100 100 100 100 100 100 100 100 100 100 100 100 100 100 100 98 100 100
100 100 100 100 100 100 100 100 100 100 100 100 100 100 100 100 100 100 100 100 100 100 100 100 100 100 100 100 100 100 100 100 100 100 84 100 100 100

GFSNE_prec_cloud_111.txt.gz
Cloud_Cover
100 100 100 100 100 100 100 100 100 100 100 100 100 100 100 100 100 100 100 100 100 100 100 100 100 100 100 100 100 100 100 100 100 100 57 90 100 100
100 100 100 100 100 100 100 100 100 100 100 100 100 100 100 100 100 100 100 100 100 100 100 100 100 100 100 100 100 100 100 100 100 100 100 100 100 100
100 100 100 100 100 100 100 100 100 100 100 100 100 100 100 100 100 100 100 100 100 100 100 100 100 100 100 100 100 100 100 100 100 100 100 100 100 100
100 100 100 100 100 100 100 100 100 100 100 100 100 100 100 100 100 100 100 100 100 100 100 100 100 100 100 100 100 100 100 100 100 100 100 100 100 10
99 54 99 100 99 99 100 100 100 100 100 100 100 100 100 100 100 100 100 100 100 100 99 100 98 29 74 100 100 100 100 100 100 100 100 100 38 4
73 74 26 73 97 100 100 100 100 100 100 100 100 100 100 100 100 100 100 100 100 100 100 25 5 15 80 100 100 100 100 100 100 100 100 82 5 1
4 8 84 10 41 100 100 100 99 100 100 100 100 100 100 100 100 100 100 100 100 100 81 42 5 12 74 100 100 100 100 100 100 100 97 5 4 0
34 4 5 21 5 7 100 96 100 100 100 100 100 100 100 100 100 100 100 100 100 86 12 11 4 18 94 100 100 100 100 100 100 99 7 5 6 5
100 46 6 5 84 89 77 100 100 100 100 100 100 100 100 100 100 100 100 100 93 15 6 4 12 100 100 100 100 100 100 100 100 21 5 12 17 21
98 98 92 67 48 50 92 100 100 100 100 100 100 100 100 100 100 100 100 100 83 72 86 96 89 100 100 100 100 100 100 100 70 5 5 8 20 44
5 7 44 93 80 72 70 100 100 100 100 100 100 100 100 100 100 100 100 86 88 100 90 100 100 100 100 100 100 100 100 98 42 16 55 82 65 94
8 5 5 68 100 95 72 100 100 100 100 100 100 100 100 100 100 100 98 100 99 58 100 100 100 100 100 100 100 100 100 100 38 100 100 100 78 53
100 37 31 99 100 100 98 100 100 100 100 100 100 100 100 100 100 100 100 100 100 100 100 100 100 100 100 100 100 100 100 83 6 5 25 5 5 5
100 87 100 100 100 100 100 100 100 100 100 100 100 100 98 45 100 100 100 100 100 100 100 100 100 100 100 100 100 100 100 62 12 5 5 6 6 5
100 88 100 100 100 63 76 100 100 100 100 100 83 49 98 70 85 100 100 100 100 100 100 100 100 100 100 100 100 100 100 58 45 43 54 55 52 7
100 100 100 100 60 25 75 100 100 99 96 87 99 100 72 90 98 100 100 100 100 100 100 100 100 100 100 100 100 100 100 99 95 73 70 46 22 5
100 100 95 100 74 38 47 84 90 100 85 100 100 100 100 93 100 100 100 100 100 100 100 100 100 100 100 100 100 100 100 84 98 96 82 72 9 5
100 91 90 97 53 63 66 80 71 95 85 100 100 100 100 100 100 100 100 100 100 100 100 100 100 100 100 100 100 100 100 94 88 96 95 92 58 5
100 100 98 99 99 84 61 100 100 99 100 100 100 100 100 100 100 100 100 100 100 100 100 100 100 100 100 100 100 100 100 85 70 71 41 77 100 86
100 100 100 100 76 79 84 100 100 100 100 100 100 100 100 100 100 100 100 100 100 100 100 100 100 100 100 100 100 100 100 83 81 98 100 100 100 100
100 100 100 100 98 100 100 99 100 100 100 100 100 100 100 100 100 100 100 100 100 100 100 100 100 100 100 100 100 86 77 100 100 100 100 100 100 100
100 100 100 100 100 96 100 100 100 100 100 100 100 100 100 100 100 100 100 100 100 100 100 100 100 100 100 100 100 100 100 100 100 100 100 100 100 100
100 100 100 100 100 100 100 100 100 100 100 100 100 100 100 100 100 100 100 100 100 100 100 100 100 100 100 100 100 100 100 100 100 100 100 100 100 100

GFSNE_prec_cloud_114.txt.gz
Cloud_Cover
100 100 100 100 86 100 100 100 100 100 100 100 100 100 94 100 100 100 100 100 100 100 100 100 100 100 100 100 100 100 100 100 90 30 100 97 100 100
100 100 100 100 100 100 100 100 100 100 100 100 100 100 100 100 100 100 100 100 100 100 100 100 100 100 100 100 100 100 100 100 100 100 97 100 100 97
100 100 100 100 100 100 100 100 100 100 100 100 100 100 100 100 100 100 100 100 100 100 100 100 100 100 100 100 100 100 100 100 100 100 99 100 100 92
99 100 100 100 100 100 100 100 100 100 100 100 100 100 100 100 100 100 100 100 100 100 100 100 100 80 100 100 100 100 100 100 99 100 100 100 100 100
91 100 100 100 100 100 100 100 100 100 100 100 100 100 100 100 100 100 100 96 100 100 100 94 100 100 77 96 76 10 54 90 95 100 100 100 100 100
89 100 99 100 100 74 74 68 91 81 92 100 100 100 100 100 100 100 100 100 100 100 100 84 96 37 5 13 6 5 79 100 82 100 100 100 100 100
100 100 100 100 100 6 58 37 64 62 99 100 100 100 100 100 100 84 100 100 100 100 100 98 97 41 5 7 99 5 100 100 100 100 100 100 100 63
100 100 100 11 4 1 58 39 95 100 100 100 100 100 100 100 100 100 100 100 100 93 98 100 100 18 10 79 81 91 100 100 100 100 100 100 100 5
100 61 2 3 3 0 0 3 12 39 54 99 100 100 100 100 100 100 100 100 100 100 100 100 59 24 6 100 100 100 100 100 100 100 100 100 55 92
21 2 0 1 4 13 4 0 2 6 37 100 100 100 100 100 100 100 100 100 100 100 100 100 74 13 23 100 100 100 100 100 100 100 100 68 99 82
5 5 5 5 5 80 81 11 15 31 40 100 100 100 100 100 100 100 100 100 100 100 100 100 86 46 100 100 100 100 100 100 100 100 100 100 74 93
8 85 98 37 6 88 99 100 100 95 59 99 100 100 100 100 100 100 100 100 100 100 100 98 62 99 100 100 100 100 100 100 100 100 100 81 100 84
100 100 100 100 72 100 100 100 100 90 80 100 100 100 100 100 100 100 100 100 100 80 18 100 100 100 100 100 100 100 100 100 100 100 100 100 94 40
100 97 100 100 79 100 100 100 100 36 84 100 100 100 100 100 100 100 99 70 81 99 100 100 100 100 100 100 100 100 100 100 100 100 100 100 100 53
99 100 92 100 100 100 100 46 39 24 62 92 100 100 98 86 97 60 98 99 100 100 100 100 100 100 100 100 100 100 100 100 100 100 100 100 86 63
100 100 92 100 100 100 100 100 81 11 20 77 89 97 92 98 71 100 83 85 97 100 100 100 100 100 100 100 100 100 100 100 100 100 100 100 96 96
100 100 100 100 100 100 96 38 25 6 5 42 61 90 98 99 67 96 93 100 100 100 100 100 100 100 100 100 100 100 100 100 100 100 100 100 100 100
98 100 100 100 88 99 100 68 37 9 7 38 96 86 90 99 100 97 91 89 93 99 100 100 100 100 100 100 100 100 100 100 100 100 100 100 94 100
100 100 100 100 100 100 100 86 70 53 60 100 90 100 99 100 100 100 100 100 100 100 100 100 100 100 100 100 100 100 100 100 100 100 100 100 100 100
100 100 100 100 100 99 72 64 68 68 57 100 100 100 100 100 100 100 100 97 100 100 100 100 100 100 100 100 100 67 100 100 100 100 100 100 100 100
100 100 100 100 100 100 100 69 67 63 54 100 100 100 100 100 100 100 100 100 100 100 100 100 99 100 100 100 100 82 92 100 100 100 100 100 100 100
100 100 100 100 100 100 100 100 100 100 100 100 100 100 100 94 100 100 100 100 100 100 100 100 100 100 100 100 100 100 100 100 100 100 100 100 100 100
100 100 100 100 100 100 100 100 100 98 100 100 100 100 98 100 100 100 100 100 100 100 100 100 100 100 100 100 100 100 100 100 100 100 100 100 100 100

GFSNE_prec_cloud_117.txt.gz
Cloud_Cover
100 100 99 100 100 100 100 97 100 100 100 100 100 100 100 100 100 100 100 100 100 100 100 100 100 100 100 100 100 100 100 100 100 100 100 94 92 73
100 100 100 100 100 100 100 100 100 100 99 96 100 99 100 100 100 100 100 100 100 100 100 100 100 100 100 100 100 100 100 100 100 100 100 100 100 100
100 100 100 100 100 99 86 100 100 100 100 100 100 100 100 100 100 100 100 100 100 100 100 100 100 100 100 100 100 100 100 100 100 100 100 100 100 100
100 100 100 100 100 100 100 100 100 100 100 100 100 100 81 99 90 96 100 100 100 85 98 100 96 100 100 100 100 100 100 100 100 100 100 96 74 85
100 100 100 100 100 100 100 100 100 93 93 100 100 98 100 100 100 100 100 100 100 100 87 97 100 62 100 98 100 100 100 100 100 100 100 100 100 100
100 100 100 100 100 100 100 100 100 98 100 100 100 100 100 100 100 100 100 100 100 100 100 100 100 100 100 81 55 35 59 95 94 100 99 100 100 100
100 100 100 100 100 100 100 100 100 100 100 94 100 100 100 100 100 100 100 100 100 100 100 100 100 91 100 29 50 54 100 66 100 96 100 100 100 100
100 100 100 100 100 100 100 100 91 69 100 100 100 100 100 100 100 100 100 100 100 100 100 100 100 100 100 100 75 4 7 58 100 100 100 100 100 100
100 100 100 100 100 100 81 100 92 20 95 92 99 100 100 100 100 100 100 100 100 100 100 100 100 100 100 100 49 5 24 100 100 100 100 100 100 100
100 100 100 100 100 100 98 98 89 26 36 13 19 28 80 100 100 100 100 100 100 100 100 100 100 100 100 100 100 55 100 100 100 100 100 100 100 100
100 100 100 100 100 100 89 28 11 6 3 8 8 25 95 100 100 100 100 100 100 100 100 100 100 100 100 100 100 100 100 100 100 100 100 100 100 100
99 99 100 100 43 99 30 32 100 100 100 90 13 56 98 100 100 100 100 100 100 100 100 100 100 100 100 100 100 100 100 100 100 100 100 100 100 100
100 100 100 77 92 98 99 100 100 100 100 38 23 65 100 100 100 100 100 100 100 100 100 100 100 100 100 100 100 100 100 100 100 100 100 100 100 100
100 99 83 70 100 100 100 100 100 89 31 5 8 37 100 96 100 100 100 100 100 100 100 79 53 100 100 100 100 100 100 100 100 100 100 100 100 100
57 75 86 100 99 100 100 100 100 81 22 5 5 5 75 78 73 73 81 88 88 88 71 94 100 100 100 100 100 100 100 100 100 100 100 100 100 100
87 100 100 91 100 100 100 100 100 43 8 5 5 5 5 16 5 31 21 98 10 84 100 100 100 100 100 100 100 100 100 100 100 100 100 100 100 100
98 88 100 100 100 100 100 100 99 21 5 5 5 5 5 5 15 81 80 85 94 99 100 97 100 100 100 100 100 100 100 100 100 100 100 100 100 100
99 100 100 100 100 100 100 100 100 98 40 5 5 5 5 5 41 100 100 100 100 100 100 100 100 100 100 100 100 100 100 100 100 100 100 100 100 100
100 100 100 100 100 100 100 100 100 100 100 24 5 5 5 38 74 100 100 100 100 100 100 100 100 100 100 100 100 100 100 100 100 100 100 99 72 91
100 100 100 100 100 100 100 100 96 78 77 58 5 5 5 67 100 100 100 100 100 100 100 100 100 100 100 100 100 99 100 100 100 100 100 87 64 96
100 100 100 100 100 100 100 100 100 100 99 100 51 32 57 55 99 100 100 100 100 100 100 100 99 100 100 100 100 97 98 100 100 100 100 100 100 100
100 100 100 100 100 100 100 100 100 100 100 100 99 73 69 40 88 100 100 100 100 100 100 100 98 100 100 100 100 100 100 100 100 100 100 100 100 100
100 100 100 100 100 100 100 100 100 100 100 100 87 85 99 79 78 84 100 100 100 100 100 100 93 100 100 100 100 100 100 100 100 100 100 100 100 100

GFSNE_prec_cloud_120.txt.gz
Cloud_Cover
100 100 100 100 100 73 100 93 100 100 100 100 89 100 100 100 100 100 100 100 100 100 100 100 100 100 100 100 100 100 100 100 100 100 100 86 100 100
100 100 100 100 100 100 100 100 100 100 100 100 100 100 65 100 100 94 100 100 100 100 100 100 100 89 100 100 100 100 100 100 100 79 100 100 100 96
100 100 100 100 100 100 100 100 54 100 100 100 99 91 98 100 100 100 97 100 100 97 100 100 100 100 100 98 100 100 100 100 81 88 100 99 100 100
100 100 100 100 100 100 100 100 100 100 94 100 46 49 35 92 100 58 96 100 100 100 100 100 100 100 100 100 99 100 100 100 100 100 100 100 100 100
100 100 100 100 100 100 100 100 100 71 19 82 96 100 100 100 100 93 99 100 100 100 100 100 100 100 100 100 93 61 56 64 100 100 100 100 99 100
100 100 100 100 100 100 98 87 47 98 70 100 100 100 100 100 100 100 100 100 100 100 100 100 100 100 100 96 100 93 91 74 97 100 100 100 100 99
100 100 100 100 100 100 100 100 100 100 100 99 100 99 100 100 100 98 100 100 100 100 100 100 100 100 100 100 100 100 100 92 99 100 100 100 100 100
100 100 100 100 100 100 100 100 100 100 100 100 100 100 93 100 100 100 100 100 100 100 100 100 100 100 100 100 100 100 100 100 5 91 100 100 100 100
100 100 100 100 100 100 100 100 100 100 100 100 89 99 96 97 100 100 100 100 100 100 100 100 100 100 100 100 100 100 100 100 82 62 100 100 100 100
100 100 100 100 100 100 100 100 100 100 68 62 33 47 60 74 88 100 100 100 100 100 100 100 100 100 100 100 100 100 100 100 100 100 100 100 100 100
100 100 100 100 100 100 100 62 94 100 85 7 6 9 64 67 61 100 100 100 100 100 100 100 100 100 100 100 100 100 100 100 100 100 100 100 100 100
98 99 100 100 100 100 100 82 97 24 100 100 100 18 41 80 79 94 91 100 100 100 100 100 100 100 100 100 100 100 100 100 100 100 100 100 100 100
100 100 100 100 100 100 70 63 86 43 98 98 95 31 5 11 44 68 100 100 100 100 100 100 100 100 100 100 89 99 100 100 100 100 100 100 100 100
100 100 100 100 99 99 90 98 80 100 96 94 27 25 12 13 5 6 28 81 100 100 100 100 100 98 92 86 86 80 98 100 100 100 100 100 100 100
100 100 100 100 100 79 76 100 98 100 100 86 61 10 5 5 32 29 47 43 81 91 68 72 100 76 54 47 100 100 100 100 100 100 100 100 100 100
100 100 100 81 85 99 100 100 100 100 99 49 5 5 5 5 5 12 16 27 22 49 56 59 67 26 56 89 100 100 100 100 100 100 100 100 100 100
100 100 100 100 100 100 100 100 100 100 100 82 18 5 5 5 5 24 28 33 5 8 54 100 75 90 94 100 100 100 100 100 100 100 100 100 100 100
100 100 85 97 97 76 100 100 100 100 100 100 89 17 5 5 7 41 37 30 10 6 40 98 94 100 96 100 100 100 100 100 100 100 100 100 100 100
100 90 98 100 100 100 100 100 100 100 100 100 100 61 5 8 5 18 26 16 5 48 77 89 95 73 100 100 100 100 100 100 100 100 100 100 100 100
100 100 100 100 100 100 100 100 100 100 100 100 100 68 39 22 27 12 62 16 6 50 94 96 100 94 100 100 100 100 100 100 100 100 100 100 100 100
100 100 100 100 100 100 100 100 100 100 100 100 100 100 83 47 32 74 76 78 5 50 64 65 86 99 100 100 100 100 98 100 100 100 100 100 100 100
100 100 100 100 100 100 100 100 100 100 100 100 100 100 100 100 83 93 79 75 70 64 75 100 99 100 100 100 100 100 99 100 100 100 100 100 100 100
100 100 100 100 100 100 100 100 100 100 100 100 100 100 100 100 100 94 97 82 78 23 74 88 99 100 100 100 100 100 100 100 100 100 100 100 100 100